Wetterdaten: aktuell Montag, 13.07.2020 10:43
Datum Zeit Temp. A. Feuchte A. Luftdruck Regen Wind Richtung Richtung Taupunkt Windchill
13.07.2020 10:43 16,6 C 54 % 1023,1 hPa 0,0 l/m 0,0 km/h (0 Bft) N-NO 31 7,3 C 16,6 C
13.07.2020 10:42 16,7 C 54 % 1023,2 hPa 0,0 l/m 0,0 km/h (0 Bft) NO 34 7,3 C 16,7 C
13.07.2020 10:41 16,8 C 55 % 1023,1 hPa 0,0 l/m 1,7 km/h (1 Bft) O-NO 57 7,7 C 16,8 C
13.07.2020 10:40 16,9 C 52 % 1023,2 hPa 0,0 l/m 0,0 km/h (0 Bft) N-NO 32 7,0 C 16,9 C
13.07.2020 10:39 16,9 C 51 % 1023,2 hPa 0,0 l/m 0,0 km/h (0 Bft) N-NO 12 6,7 C 16,9 C
13.07.2020 10:38 17,1 C 52 % 1023,1 hPa 0,0 l/m 0,0 km/h (0 Bft) N-NO 27 7,2 C 17,1 C
13.07.2020 10:37 17,2 C 51 % 1023,1 hPa 0,0 l/m 0,0 km/h (0 Bft) N-NO 23 7,0 C 17,2 C
13.07.2020 10:36 17,3 C 51 % 1023,2 hPa 0,0 l/m 0,0 km/h (0 Bft) NO 51 7,1 C 17,3 C
13.07.2020 10:35 17,3 C 53 % 1023,1 hPa 0,0 l/m 0,0 km/h (0 Bft) NO 47 7,6 C 17,3 C
13.07.2020 10:34 17,3 C 50 % 1023,2 hPa 0,0 l/m 0,0 km/h (0 Bft) N-NO 24 6,8 C 17,3 C
13.07.2020 10:33 17,4 C 50 % 1023,2 hPa 0,0 l/m 0,0 km/h (0 Bft) NO 40 6,9 C 17,4 C
13.07.2020 10:32 17,4 C 51 % 1023,2 hPa 0,0 l/m 0,0 km/h (0 Bft) O 80 7,2 C 17,4 C
13.07.2020 10:31 17,5 C 50 % 1023,2 hPa 0,0 l/m 0,0 km/h (0 Bft) N-NO 19 7,0 C 17,5 C
13.07.2020 10:30 17,6 C 51 % 1023,2 hPa 0,0 l/m 0,0 km/h (0 Bft) N-NO 19 7,3 C 17,6 C
13.07.2020 10:29 17,6 C 51 % 1023,1 hPa 0,0 l/m 0,0 km/h (0 Bft) N 355 7,3 C 17,6 C
13.07.2020 10:28 17,6 C 53 % 1023,1 hPa 0,0 l/m 0,0 km/h (0 Bft) NO 42 7,9 C 17,6 C
13.07.2020 10:27 17,7 C 54 % 1023,2 hPa 0,0 l/m 0,0 km/h (0 Bft) O-NO 66 8,3 C 17,7 C
13.07.2020 10:26 17,7 C 56 % 1023,2 hPa 0,0 l/m 0,0 km/h (0 Bft) O 84 8,8 C 17,7 C
13.07.2020 10:25 17,6 C 55 % 1023,2 hPa 0,0 l/m 0,0 km/h (0 Bft) O-SO 106 8,5 C 17,6 C
13.07.2020 10:24 17,6 C 56 % 1023,2 hPa 0,0 l/m 0,0 km/h (0 Bft) O 92 8,7 C 17,6 C
13.07.2020 10:23 17,5 C 55 % 1023,2 hPa 0,0 l/m 0,0 km/h (0 Bft) S-SO 161 8,4 C 17,5 C
13.07.2020 10:22 17,4 C 54 % 1023,2 hPa 0,0 l/m 0,0 km/h (0 Bft) O-NO 71 8,0 C 17,4 C
13.07.2020 10:21 17,4 C 54 % 1023,2 hPa 0,0 l/m 0,0 km/h (0 Bft) O 98 8,0 C 17,4 C
13.07.2020 10:20 17,4 C 55 % 1023,2 hPa 0,0 l/m 0,0 km/h (0 Bft) O 80 8,3 C 17,4 C
13.07.2020 10:19 17,4 C 56 % 1023,1 hPa 0,0 l/m 0,0 km/h (0 Bft) NO 55 8,5 C 17,4 C
13.07.2020 10:18 17,3 C 56 % 1023,1 hPa 0,0 l/m 0,0 km/h (0 Bft) N 355 8,4 C 17,3 C
13.07.2020 10:17 17,3 C 53 % 1023,1 hPa 0,0 l/m 0,0 km/h (0 Bft) O-SO 105 7,6 C 17,3 C
13.07.2020 10:16 17,4 C 54 % 1023,2 hPa 0,0 l/m 0,0 km/h (0 Bft) N-NW 342 8,0 C 17,4 C
13.07.2020 10:15 17,4 C 56 % 1023,1 hPa 0,0 l/m 0,0 km/h (0 Bft) NW 315 8,5 C 17,4 C
13.07.2020 10:14 17,4 C 56 % 1023,2 hPa 0,0 l/m 0,0 km/h (0 Bft) NO 43 8,5 C 17,4 C
13.07.2020 10:13 17,4 C 55 % 1023,1 hPa 0,0 l/m 0,0 km/h (0 Bft) N-NO 25 8,3 C 17,4 C
13.07.2020 10:12 17,4 C 55 % 1023,1 hPa 0,0 l/m 0,0 km/h (0 Bft) O 98 8,3 C 17,4 C
13.07.2020 10:11 17,4 C 55 % 1023,1 hPa 0,0 l/m 0,0 km/h (0 Bft) O 86 8,3 C 17,4 C
13.07.2020 10:10 17,3 C 58 % 1023,1 hPa 0,0 l/m 0,0 km/h (0 Bft) SO 134 9,0 C 17,3 C
13.07.2020 10:09 17,3 C 59 % 1023,1 hPa 0,0 l/m 0,0 km/h (0 Bft) N-NW 344 9,2 C 17,3 C
13.07.2020 10:08 17,3 C 58 % 1023,1 hPa 0,0 l/m 0,0 km/h (0 Bft) N 355 9,0 C 17,3 C
13.07.2020 10:07 17,3 C 57 % 1023,1 hPa 0,0 l/m 0,0 km/h (0 Bft) NO 51 8,7 C 17,3 C
13.07.2020 10:06 17,3 C 57 % 1023,1 hPa 0,0 l/m 0,0 km/h (0 Bft) NW 306 8,7 C 17,3 C
13.07.2020 10:05 17,3 C 60 % 1023,2 hPa 0,0 l/m 0,0 km/h (0 Bft) NW 324 9,5 C 17,3 C
13.07.2020 10:04 17,2 C 60 % 1023,1 hPa 0,0 l/m 0,0 km/h (0 Bft) N 360 9,4 C 17,2 C
13.07.2020 10:03 17,2 C 62 % 1023,1 hPa 0,0 l/m 0,0 km/h (0 Bft) O-NO 71 9,9 C 17,2 C
13.07.2020 10:02 17,1 C 60 % 1023,1 hPa 0,0 l/m 0,0 km/h (0 Bft) N 355 9,3 C 17,1 C
13.07.2020 10:01 16,9 C 61 % 1023,2 hPa 0,0 l/m 0,0 km/h (0 Bft) NO 45 9,3 C 16,9 C
13.07.2020 10:00 16,9 C 61 % 1023,2 hPa 0,0 l/m 0,0 km/h (0 Bft) N-NO 15 9,3 C 16,9 C
13.07.2020 09:59 16,8 C 60 % 1023,1 hPa 0,0 l/m 0,0 km/h (0 Bft) NO 48 9,0 C 16,8 C
13.07.2020 09:56 16,8 C 60 % 1023,3 hPa 0,0 l/m 0,0 km/h (0 Bft) NO 49 9,0 C 16,8 C
13.07.2020 09:55 16,8 C 60 % 1023,3 hPa 0,0 l/m 0,0 km/h (0 Bft) N-NO 22 9,0 C 16,8 C
13.07.2020 09:54 16,8 C 60 % 1023,2 hPa 0,0 l/m 0,0 km/h (0 Bft) NO 41 9,0 C 16,8 C
13.07.2020 09:53 16,8 C 59 % 1023,3 hPa 0,0 l/m 0,0 km/h (0 Bft) NO 55 8,7 C 16,8 C
13.07.2020 09:52 16,8 C 61 % 1023,3 hPa 0,0 l/m 0,0 km/h (0 Bft) O 95 9,2 C 16,8 C
13.07.2020 09:51 16,8 C 61 % 1023,3 hPa 0,0 l/m 0,0 km/h (0 Bft) O-SO 111 9,2 C 16,8 C
13.07.2020 09:50 16,8 C 60 % 1023,3 hPa 0,0 l/m 0,0 km/h (0 Bft) N-NO 33 9,0 C 16,8 C
13.07.2020 09:49 16,8 C 60 % 1023,3 hPa 0,0 l/m 0,0 km/h (0 Bft) N 5 9,0 C 16,8 C
13.07.2020 09:48 16,8 C 63 % 1023,3 hPa 0,0 l/m 0,0 km/h (0 Bft) N-NO 14 9,7 C 16,8 C
13.07.2020 09:47 16,8 C 63 % 1023,3 hPa 0,0 l/m 0,0 km/h (0 Bft) N-NO 18 9,7 C 16,8 C
13.07.2020 09:46 16,8 C 62 % 1023,3 hPa 0,0 l/m 0,0 km/h (0 Bft) N 355 9,5 C 16,8 C
13.07.2020 09:45 16,8 C 63 % 1023,3 hPa 0,0 l/m 0,0 km/h (0 Bft) O-SO 120 9,7 C 16,8 C
13.07.2020 09:44 16,8 C 64 % 1023,2 hPa 0,0 l/m 0,0 km/h (0 Bft) O 100 10,0 C 16,8 C
13.07.2020 09:43 16,7 C 63 % 1023,3 hPa 0,0 l/m 0,0 km/h (0 Bft) O-NO 58 9,6 C 16,7 C
13.07.2020 09:42 16,7 C 64 % 1023,3 hPa 0,0 l/m 0,0 km/h (0 Bft) N 11 9,9 C 16,7 C
13.07.2020 09:41 16,6 C 64 % 1023,3 hPa 0,0 l/m 0,0 km/h (0 Bft) O-SO 102 9,8 C 16,6 C
13.07.2020 09:40 16,6 C 63 % 1023,3 hPa 0,0 l/m 0,0 km/h (0 Bft) NO 45 9,5 C 16,6 C
13.07.2020 09:39 16,6 C 64 % 1023,4 hPa 0,0 l/m 0,0 km/h (0 Bft) O-NO 76 9,8 C 16,6 C
13.07.2020 09:38 16,6 C 64 % 1023,4 hPa 0,0 l/m 0,0 km/h (0 Bft) NO 47 9,8 C 16,6 C
13.07.2020 09:37 16,5 C 64 % 1023,4 hPa 0,0 l/m 0,0 km/h (0 Bft) NO 44 9,7 C 16,5 C
13.07.2020 09:36 16,4 C 65 % 1023,4 hPa 0,0 l/m 0,0 km/h (0 Bft) O 82 9,8 C 16,4 C
13.07.2020 09:35 16,4 C 65 % 1023,3 hPa 0,0 l/m 1,7 km/h (1 Bft) O-SO 103 9,8 C 16,4 C
13.07.2020 09:34 16,3 C 65 % 1023,3 hPa 0,0 l/m 1,7 km/h (1 Bft) NO 34 9,7 C 16,3 C
13.07.2020 09:33 16,3 C 65 % 1023,3 hPa 0,0 l/m 0,0 km/h (0 Bft) O-SO 113 9,7 C 16,3 C
13.07.2020 09:32 16,3 C 64 % 1023,4 hPa 0,0 l/m 0,0 km/h (0 Bft) O-NO 66 9,5 C 16,3 C
13.07.2020 09:31 16,3 C 64 % 1023,4 hPa 0,0 l/m 0,0 km/h (0 Bft) O-NO 67 9,5 C 16,3 C
13.07.2020 09:30 16,3 C 65 % 1023,4 hPa 0,0 l/m 0,0 km/h (0 Bft) NO 40 9,7 C 16,3 C
13.07.2020 09:29 16,3 C 65 % 1023,4 hPa 0,0 l/m 0,0 km/h (0 Bft) NO 48 9,7 C 16,3 C
13.07.2020 09:28 16,3 C 65 % 1023,5 hPa 0,0 l/m 0,0 km/h (0 Bft) N-NO 29 9,7 C 16,3 C
13.07.2020 09:27 16,3 C 65 % 1023,4 hPa 0,0 l/m 0,0 km/h (0 Bft) NO 49 9,7 C 16,3 C
13.07.2020 09:26 16,3 C 65 % 1023,5 hPa 0,0 l/m 1,7 km/h (1 Bft) N 5 9,7 C 16,3 C
13.07.2020 09:25 16,2 C 66 % 1023,5 hPa 0,0 l/m 0,0 km/h (0 Bft) N-NO 33 9,8 C 16,2 C
13.07.2020 09:24 16,2 C 67 % 1023,5 hPa 0,0 l/m 0,0 km/h (0 Bft) O-NO 74 10,1 C 16,2 C
13.07.2020 09:23 16,2 C 67 % 1023,4 hPa 0,0 l/m 0,0 km/h (0 Bft) N 360 10,1 C 16,2 C
13.07.2020 09:22 16,2 C 67 % 1023,4 hPa 0,0 l/m 0,0 km/h (0 Bft) O 101 10,1 C 16,2 C
13.07.2020 09:21 16,1 C 67 % 1023,5 hPa 0,0 l/m 0,0 km/h (0 Bft) O 84 10,0 C 16,1 C
13.07.2020 09:20 16,1 C 67 % 1023,4 hPa 0,0 l/m 0,0 km/h (0 Bft) N-NO 20 10,0 C 16,1 C
13.07.2020 09:19 16,1 C 67 % 1023,4 hPa 0,0 l/m 0,0 km/h (0 Bft) O-NO 60 10,0 C 16,1 C
13.07.2020 09:18 16,0 C 67 % 1023,5 hPa 0,0 l/m 0,0 km/h (0 Bft) O-NO 67 9,9 C 16,0 C
13.07.2020 09:17 15,9 C 67 % 1023,5 hPa 0,0 l/m 0,0 km/h (0 Bft) N-NO 25 9,8 C 15,9 C
13.07.2020 09:16 15,9 C 67 % 1023,4 hPa 0,0 l/m 0,0 km/h (0 Bft) N-NO 12 9,8 C 15,9 C
13.07.2020 09:15 15,9 C 67 % 1023,5 hPa 0,0 l/m 0,0 km/h (0 Bft) O-NO 77 9,8 C 15,9 C
13.07.2020 09:14 15,8 C 69 % 1023,5 hPa 0,0 l/m 0,0 km/h (0 Bft) O-NO 65 10,1 C 15,8 C
13.07.2020 09:13 15,8 C 69 % 1023,5 hPa 0,0 l/m 0,0 km/h (0 Bft) N-NO 31 10,1 C 15,8 C
13.07.2020 09:12 15,8 C 71 % 1023,5 hPa 0,0 l/m 0,0 km/h (0 Bft) O-NO 58 10,6 C 15,8 C
13.07.2020 09:11 15,7 C 70 % 1023,5 hPa 0,0 l/m 0,0 km/h (0 Bft) SO 128 10,2 C 15,7 C
13.07.2020 09:10 15,6 C 71 % 1023,5 hPa 0,0 l/m 0,0 km/h (0 Bft) NO 54 10,4 C 15,6 C
13.07.2020 09:09 15,5 C 71 % 1023,5 hPa 0,0 l/m 0,0 km/h (0 Bft) NO 39 10,3 C 15,5 C
13.07.2020 09:08 15,4 C 70 % 1023,5 hPa 0,0 l/m 0,0 km/h (0 Bft) N 5 10,0 C 15,4 C
13.07.2020 09:07 15,4 C 70 % 1023,5 hPa 0,0 l/m 0,0 km/h (0 Bft) N-NO 26 10,0 C 15,4 C
13.07.2020 09:06 15,4 C 70 % 1023,5 hPa 0,0 l/m 0,0 km/h (0 Bft) N 5 10,0 C 15,4 C
13.07.2020 09:05 15,3 C 70 % 1023,5 hPa 0,0 l/m 0,0 km/h (0 Bft) N-NO 22 9,9 C 15,3 C
13.07.2020 09:04 15,3 C 71 % 1023,5 hPa 0,0 l/m 0,0 km/h (0 Bft) N-NO 16 10,1 C 15,3 C
13.07.2020 09:03 15,3 C 71 % 1023,5 hPa 0,0 l/m 0,0 km/h (0 Bft) NW 319 10,1 C 15,3 C
13.07.2020 09:02 15,3 C 72 % 1023,5 hPa 0,0 l/m 0,0 km/h (0 Bft) NW 317 10,3 C 15,3 C
13.07.2020 09:01 15,3 C 72 % 1023,6 hPa 0,0 l/m 0,0 km/h (0 Bft) N 5 10,3 C 15,3 C
13.07.2020 09:00 15,3 C 73 % 1023,6 hPa 0,0 l/m 0,0 km/h (0 Bft) N 11 10,5 C 15,3 C
13.07.2020 08:59 15,3 C 73 % 1023,5 hPa 0,0 l/m 0,0 km/h (0 Bft) N-NO 14 10,5 C 15,3 C
13.07.2020 08:58 15,2 C 73 % 1023,5 hPa 0,0 l/m 0,0 km/h (0 Bft) O-NO 68 10,4 C 15,2 C
13.07.2020 08:57 15,2 C 75 % 1023,6 hPa 0,0 l/m 0,0 km/h (0 Bft) NO 38 10,8 C 15,2 C
13.07.2020 08:54 14,9 C 77 % 1023,6 hPa 0,0 l/m 0,0 km/h (0 Bft) N-NO 14 10,9 C 14,9 C
13.07.2020 08:53 14,8 C 77 % 1023,6 hPa 0,0 l/m 0,0 km/h (0 Bft) N-NO 12 10,8 C 14,8 C
13.07.2020 08:52 14,8 C 78 % 1023,6 hPa 0,0 l/m 0,0 km/h (0 Bft) N-NO 23 11,0 C 14,8 C
13.07.2020 08:51 14,7 C 80 % 1023,6 hPa 0,0 l/m 0,0 km/h (0 Bft) N-NW 341 11,3 C 14,7 C
13.07.2020 08:50 14,6 C 81 % 1023,6 hPa 0,0 l/m 0,0 km/h (0 Bft) NO 55 11,4 C 14,6 C
13.07.2020 08:49 14,5 C 81 % 1023,6 hPa 0,0 l/m 0,0 km/h (0 Bft) O-NO 58 11,3 C 14,5 C
13.07.2020 08:48 14,4 C 82 % 1023,6 hPa 0,0 l/m 0,0 km/h (0 Bft) O-NO 58 11,4 C 14,4 C
13.07.2020 08:47 14,3 C 82 % 1023,6 hPa 0,0 l/m 0,0 km/h (0 Bft) O-NO 57 11,3 C 14,3 C
13.07.2020 08:46 14,2 C 82 % 1023,7 hPa 0,0 l/m 0,0 km/h (0 Bft) NO 40 11,2 C 14,2 C
13.07.2020 08:45 14,1 C 84 % 1023,7 hPa 0,0 l/m 0,0 km/h (0 Bft) NO 36 11,4 C 14,1 C
13.07.2020 08:44 14,0 C 85 % 1023,7 hPa 0,0 l/m 0,0 km/h (0 Bft) NO 42 11,5 C 14,0 C
13.07.2020 08:43 13,9 C 86 % 1023,7 hPa 0,0 l/m 0,0 km/h (0 Bft) NO 37 11,6 C 13,9 C
13.07.2020 08:42 13,8 C 87 % 1023,7 hPa 0,0 l/m 0,0 km/h (0 Bft) NO 42 11,7 C 13,8 C
13.07.2020 08:41 13,7 C 88 % 1023,7 hPa 0,0 l/m 0,0 km/h (0 Bft) NO 44 11,7 C 13,7 C
13.07.2020 08:38 13,4 C 89 % 1023,7 hPa 0,0 l/m 0,0 km/h (0 Bft) NO 46 11,6 C 13,4 C
13.07.2020 08:37 13,3 C 90 % 1023,7 hPa 0,0 l/m 0,0 km/h (0 Bft) NO 41 11,7 C 13,3 C
13.07.2020 08:36 13,2 C 90 % 1023,7 hPa 0,0 l/m 0,0 km/h (0 Bft) NO 44 11,6 C 13,2 C
13.07.2020 08:35 13,1 C 90 % 1023,7 hPa 0,0 l/m 0,0 km/h (0 Bft) N-NO 26 11,5 C 13,1 C
13.07.2020 08:34 12,9 C 90 % 1023,7 hPa 0,0 l/m 0,0 km/h (0 Bft) O-NO 63 11,3 C 12,9 C
13.07.2020 08:33 12,8 C 91 % 1023,7 hPa 0,0 l/m 0,0 km/h (0 Bft) NO 39 11,4 C 12,8 C
13.07.2020 08:32 12,7 C 91 % 1023,7 hPa 0,0 l/m 0,0 km/h (0 Bft) NO 56 11,3 C 12,7 C
13.07.2020 08:31 12,6 C 91 % 1023,7 hPa 0,0 l/m 0,0 km/h (0 Bft) NO 56 11,2 C 12,6 C
13.07.2020 08:30 12,4 C 91 % 1023,7 hPa 0,0 l/m 0,0 km/h (0 Bft) N-NW 335 11,0 C 12,4 C
13.07.2020 08:29 12,3 C 91 % 1023,7 hPa 0,0 l/m 0,0 km/h (0 Bft) N-NO 28 10,9 C 12,3 C
13.07.2020 08:28 12,2 C 91 % 1023,7 hPa 0,0 l/m 0,0 km/h (0 Bft) N-NO 27 10,8 C 12,2 C
13.07.2020 08:27 12,2 C 91 % 1023,7 hPa 0,0 l/m 0,0 km/h (0 Bft) N-NO 28 10,8 C 12,2 C
13.07.2020 08:26 12,1 C 91 % 1023,8 hPa 0,0 l/m 0,0 km/h (0 Bft) N-NO 30 10,7 C 12,1 C
13.07.2020 08:25 12,1 C 92 % 1023,8 hPa 0,0 l/m 0,0 km/h (0 Bft) NO 43 10,8 C 12,1 C
13.07.2020 08:24 12,1 C 92 % 1023,7 hPa 0,0 l/m 0,0 km/h (0 Bft) NO 36 10,8 C 12,1 C
13.07.2020 08:23 12,1 C 92 % 1023,7 hPa 0,0 l/m 0,0 km/h (0 Bft) NO 36 10,8 C 12,1 C
13.07.2020 08:22 12,1 C 92 % 1023,8 hPa 0,0 l/m 0,0 km/h (0 Bft) NO 44 10,8 C 12,1 C
13.07.2020 08:21 12,1 C 92 % 1023,7 hPa 0,0 l/m 0,0 km/h (0 Bft) SO 145 10,8 C 12,1 C
13.07.2020 08:20 12,0 C 92 % 1023,7 hPa 0,0 l/m 0,0 km/h (0 Bft) S 183 10,7 C 12,0 C
13.07.2020 08:19 11,9 C 92 % 1023,7 hPa 0,0 l/m 0,0 km/h (0 Bft) S 183 10,6 C 11,9 C
13.07.2020 08:18 11,9 C 92 % 1023,7 hPa 0,0 l/m 0,0 km/h (0 Bft) S 183 10,6 C 11,9 C
13.07.2020 08:17 11,8 C 92 % 1023,7 hPa 0,0 l/m 0,0 km/h (0 Bft) S 183 10,5 C 11,8 C
13.07.2020 08:16 11,7 C 92 % 1023,8 hPa 0,0 l/m 0,0 km/h (0 Bft) S 183 10,4 C 11,7 C
13.07.2020 08:15 11,7 C 92 % 1023,7 hPa 0,0 l/m 0,0 km/h (0 Bft) S 183 10,4 C 11,7 C
13.07.2020 08:14 11,6 C 92 % 1023,8 hPa 0,0 l/m 0,0 km/h (0 Bft) S 183 10,3 C 11,6 C
13.07.2020 08:13 11,4 C 92 % 1023,8 hPa 0,0 l/m 0,0 km/h (0 Bft) S 183 10,1 C 11,4 C
13.07.2020 08:12 11,4 C 92 % 1023,7 hPa 0,0 l/m 0,0 km/h (0 Bft) S 183 10,1 C 11,4 C
13.07.2020 08:11 11,3 C 92 % 1023,8 hPa 0,0 l/m 0,0 km/h (0 Bft) S 183 10,0 C 11,3 C
13.07.2020 08:10 11,2 C 92 % 1023,8 hPa 0,0 l/m 0,0 km/h (0 Bft) S 183 9,9 C 11,2 C
13.07.2020 08:09 11,2 C 92 % 1023,7 hPa 0,0 l/m 0,0 km/h (0 Bft) S 183 9,9 C 11,2 C
13.07.2020 08:08 11,1 C 92 % 1023,8 hPa 0,0 l/m 0,0 km/h (0 Bft) S-SW 205 9,8 C 11,1 C
13.07.2020 08:07 10,9 C 92 % 1023,8 hPa 0,0 l/m 0,0 km/h (0 Bft) S-SW 205 9,7 C 10,9 C
13.07.2020 08:06 10,8 C 92 % 1023,7 hPa 0,0 l/m 0,0 km/h (0 Bft) S-SW 205 9,6 C 10,8 C
13.07.2020 08:05 10,7 C 92 % 1023,7 hPa 0,0 l/m 0,0 km/h (0 Bft) S-SW 205 9,5 C 10,7 C
13.07.2020 08:04 10,6 C 92 % 1023,7 hPa 0,0 l/m 0,0 km/h (0 Bft) S-SW 205 9,4 C 10,6 C
13.07.2020 08:03 10,4 C 92 % 1023,7 hPa 0,0 l/m 0,0 km/h (0 Bft) S-SW 205 9,2 C 10,4 C
13.07.2020 08:02 10,4 C 92 % 1023,7 hPa 0,0 l/m 0,0 km/h (0 Bft) S-SW 205 9,2 C 10,4 C
13.07.2020 08:01 10,3 C 92 % 1023,7 hPa 0,0 l/m 0,0 km/h (0 Bft) S-SW 205 9,1 C 10,3 C
13.07.2020 08:00 10,2 C 92 % 1023,7 hPa 0,0 l/m 0,0 km/h (0 Bft) S-SW 205 9,0 C 10,2 C
13.07.2020 07:59 10,1 C 92 % 1023,7 hPa 0,0 l/m 0,0 km/h (0 Bft) S-SW 205 8,9 C 10,1 C
13.07.2020 07:58 10,0 C 92 % 1023,7 hPa 0,0 l/m 0,0 km/h (0 Bft) S-SW 205 8,8 C 10,0 C
13.07.2020 07:57 9,9 C 92 % 1023,8 hPa 0,0 l/m 0,0 km/h (0 Bft) S-SW 205 8,7 C 9,9 C
13.07.2020 07:56 9,8 C 92 % 1023,7 hPa 0,0 l/m 0,0 km/h (0 Bft) S-SW 205 8,6 C 9,8 C
13.07.2020 07:55 9,7 C 92 % 1023,7 hPa 0,0 l/m 0,0 km/h (0 Bft) S-SW 205 8,5 C 9,7 C
13.07.2020 07:54 9,7 C 92 % 1023,8 hPa 0,0 l/m 0,0 km/h (0 Bft) S-SW 205 8,5 C 9,7 C
13.07.2020 07:50 9,3 C 92 % 1023,7 hPa 0,0 l/m 0,0 km/h (0 Bft) S-SW 205 8,1 C 9,3 C
13.07.2020 07:49 9,2 C 92 % 1023,8 hPa 0,0 l/m 0,0 km/h (0 Bft) S-SW 205 8,0 C 9,2 C
13.07.2020 07:48 9,2 C 92 % 1023,7 hPa 0,0 l/m 0,0 km/h (0 Bft) S-SW 205 8,0 C 9,2 C
13.07.2020 07:47 9,1 C 92 % 1023,8 hPa 0,0 l/m 0,0 km/h (0 Bft) S-SW 205 7,9 C 9,1 C
13.07.2020 07:46 9,0 C 92 % 1023,8 hPa 0,0 l/m 0,0 km/h (0 Bft) S-SW 205 7,8 C 9,0 C
13.07.2020 07:45 8,9 C 92 % 1023,8 hPa 0,0 l/m 0,0 km/h (0 Bft) S-SW 205 7,7 C 8,9 C
13.07.2020 07:44 8,8 C 92 % 1023,8 hPa 0,0 l/m 0,0 km/h (0 Bft) S-SW 205 7,6 C 8,8 C
13.07.2020 07:43 8,7 C 92 % 1023,8 hPa 0,0 l/m 0,0 km/h (0 Bft) S-SW 205 7,5 C 8,7 C
13.07.2020 07:42 8,7 C 91 % 1023,8 hPa 0,0 l/m 0,0 km/h (0 Bft) S-SW 205 7,3 C 8,7 C
13.07.2020 07:41 8,6 C 92 % 1023,8 hPa 0,0 l/m 0,0 km/h (0 Bft) S-SW 205 7,4 C 8,6 C
13.07.2020 07:40 8,6 C 92 % 1023,8 hPa 0,0 l/m 0,0 km/h (0 Bft) S-SW 205 7,4 C 8,6 C
13.07.2020 07:39 8,5 C 92 % 1023,8 hPa 0,0 l/m 0,0 km/h (0 Bft) S-SW 205 7,3 C 8,5 C
13.07.2020 07:38 8,4 C 92 % 1023,8 hPa 0,0 l/m 0,0 km/h (0 Bft) S-SW 205 7,2 C 8,4 C
13.07.2020 07:37 8,3 C 92 % 1023,8 hPa 0,0 l/m 0,0 km/h (0 Bft) S-SW 205 7,1 C 8,3 C
13.07.2020 07:36 8,3 C 91 % 1023,8 hPa 0,0 l/m 0,0 km/h (0 Bft) S-SW 205 6,9 C 8,3 C
13.07.2020 07:35 8,2 C 91 % 1023,7 hPa 0,0 l/m 0,0 km/h (0 Bft) S-SW 205 6,8 C 8,2 C
13.07.2020 07:34 8,2 C 92 % 1023,7 hPa 0,0 l/m 0,0 km/h (0 Bft) S-SW 205 7,0 C 8,2 C
13.07.2020 07:33 8,2 C 92 % 1023,7 hPa 0,0 l/m 0,0 km/h (0 Bft) S-SW 205 7,0 C 8,2 C
13.07.2020 07:32 8,1 C 92 % 1023,7 hPa 0,0 l/m 0,0 km/h (0 Bft) S-SW 205 6,9 C 8,1 C
13.07.2020 07:31 8,0 C 92 % 1023,7 hPa 0,0 l/m 0,0 km/h (0 Bft) S-SW 205 6,8 C 8,0 C
13.07.2020 07:30 8,0 C 92 % 1023,7 hPa 0,0 l/m 0,0 km/h (0 Bft) S-SW 205 6,8 C 8,0 C
13.07.2020 07:29 7,9 C 92 % 1023,7 hPa 0,0 l/m 0,0 km/h (0 Bft) S-SW 205 6,7 C 7,9 C
13.07.2020 07:28 7,8 C 92 % 1023,7 hPa 0,0 l/m 0,0 km/h (0 Bft) S-SW 205 6,6 C 7,8 C
13.07.2020 07:27 7,8 C 92 % 1023,7 hPa 0,0 l/m 0,0 km/h (0 Bft) S-SW 205 6,6 C 7,8 C
13.07.2020 07:26 7,7 C 92 % 1023,7 hPa 0,0 l/m 0,0 km/h (0 Bft) S-SW 205 6,5 C 7,7 C
13.07.2020 07:25 7,7 C 92 % 1023,7 hPa 0,0 l/m 0,0 km/h (0 Bft) S-SW 205 6,5 C 7,7 C
13.07.2020 07:24 7,6 C 92 % 1023,7 hPa 0,0 l/m 0,0 km/h (0 Bft) S-SW 205 6,4 C 7,6 C
13.07.2020 07:23 7,6 C 92 % 1023,7 hPa 0,0 l/m 0,0 km/h (0 Bft) S-SW 205 6,4 C 7,6 C
13.07.2020 07:22 7,5 C 92 % 1023,7 hPa 0,0 l/m 0,0 km/h (0 Bft) S-SW 205 6,3 C 7,5 C
13.07.2020 07:21 7,4 C 92 % 1023,7 hPa 0,0 l/m 0,0 km/h (0 Bft) S-SW 205 6,2 C 7,4 C
13.07.2020 07:20 7,3 C 92 % 1023,7 hPa 0,0 l/m 0,0 km/h (0 Bft) S-SW 205 6,1 C 7,3 C
13.07.2020 07:19 7,3 C 92 % 1023,7 hPa 0,0 l/m 0,0 km/h (0 Bft) S-SW 205 6,1 C 7,3 C
13.07.2020 07:18 7,2 C 91 % 1023,7 hPa 0,0 l/m 0,0 km/h (0 Bft) S-SW 205 5,8 C 7,2 C
13.07.2020 07:17 7,1 C 91 % 1023,8 hPa 0,0 l/m 0,0 km/h (0 Bft) S-SW 205 5,7 C 7,1 C
13.07.2020 07:16 7,1 C 92 % 1023,7 hPa 0,0 l/m 0,0 km/h (0 Bft) S-SW 205 5,9 C 7,1 C
13.07.2020 07:15 7,0 C 92 % 1023,8 hPa 0,0 l/m 0,0 km/h (0 Bft) S-SW 205 5,8 C 7,0 C
13.07.2020 07:14 6,9 C 92 % 1023,8 hPa 0,0 l/m 0,0 km/h (0 Bft) S-SW 205 5,7 C 6,9 C
13.07.2020 07:13 6,8 C 91 % 1023,8 hPa 0,0 l/m 0,0 km/h (0 Bft) S-SW 205 5,4 C 6,8 C
13.07.2020 07:12 6,8 C 91 % 1023,8 hPa 0,0 l/m 0,0 km/h (0 Bft) S-SW 205 5,4 C 6,8 C
13.07.2020 07:11 6,7 C 91 % 1023,8 hPa 0,0 l/m 0,0 km/h (0 Bft) S-SW 205 5,3 C 6,7 C
13.07.2020 07:10 6,7 C 91 % 1023,8 hPa 0,0 l/m 0,0 km/h (0 Bft) S-SW 205 5,3 C 6,7 C
13.07.2020 07:09 6,6 C 91 % 1023,8 hPa 0,0 l/m 0,0 km/h (0 Bft) S-SW 205 5,2 C 6,6 C
13.07.2020 07:08 6,6 C 91 % 1023,8 hPa 0,0 l/m 0,0 km/h (0 Bft) S-SW 205 5,2 C 6,6 C
13.07.2020 07:07 6,5 C 92 % 1023,8 hPa 0,0 l/m 0,0 km/h (0 Bft) S-SW 205 5,3 C 6,5 C
13.07.2020 07:06 6,4 C 91 % 1023,8 hPa 0,0 l/m 0,0 km/h (0 Bft) S-SW 205 5,0 C 6,4 C
13.07.2020 07:05 6,4 C 91 % 1023,8 hPa 0,0 l/m 0,0 km/h (0 Bft) S-SW 205 5,0 C 6,4 C
13.07.2020 07:04 6,3 C 91 % 1023,8 hPa 0,0 l/m 0,0 km/h (0 Bft) S-SW 205 4,9 C 6,3 C
13.07.2020 07:03 6,3 C 91 % 1023,8 hPa 0,0 l/m 0,0 km/h (0 Bft) S-SW 205 4,9 C 6,3 C
13.07.2020 07:02 6,3 C 91 % 1023,8 hPa 0,0 l/m 0,0 km/h (0 Bft) S-SW 205 4,9 C 6,3 C
13.07.2020 07:00 6,2 C 91 % 1023,8 hPa 0,0 l/m 0,0 km/h (0 Bft) S-SW 205 4,8 C 6,2 C
13.07.2020 06:59 6,1 C 91 % 1023,8 hPa 0,0 l/m 0,0 km/h (0 Bft) S-SW 205 4,7 C 6,1 C
13.07.2020 06:58 6,1 C 91 % 1023,8 hPa 0,0 l/m 0,0 km/h (0 Bft) S-SW 205 4,7 C 6,1 C
13.07.2020 06:57 6,1 C 91 % 1023,8 hPa 0,0 l/m 0,0 km/h (0 Bft) S-SW 205 4,7 C 6,1 C
13.07.2020 06:56 6,0 C 91 % 1023,8 hPa 0,0 l/m 0,0 km/h (0 Bft) S-SW 205 4,6 C 6,0 C
13.07.2020 06:55 6,0 C 91 % 1023,8 hPa 0,0 l/m 0,0 km/h (0 Bft) S-SW 205 4,6 C 6,0 C
13.07.2020 06:54 5,9 C 91 % 1023,8 hPa 0,0 l/m 0,0 km/h (0 Bft) S-SW 205 4,5 C 5,9 C
13.07.2020 06:53 5,9 C 91 % 1023,8 hPa 0,0 l/m 0,0 km/h (0 Bft) S-SW 205 4,5 C 5,9 C
13.07.2020 06:52 5,9 C 91 % 1023,8 hPa 0,0 l/m 0,0 km/h (0 Bft) S-SW 205 4,5 C 5,9 C
13.07.2020 06:51 5,9 C 91 % 1023,8 hPa 0,0 l/m 0,0 km/h (0 Bft) S-SW 205 4,5 C 5,9 C
13.07.2020 06:48 5,9 C 91 % 1023,8 hPa 0,0 l/m 0,0 km/h (0 Bft) S-SW 205 4,5 C 5,9 C
13.07.2020 06:47 5,9 C 91 % 1023,9 hPa 0,0 l/m 0,0 km/h (0 Bft) S-SW 205 4,5 C 5,9 C
13.07.2020 06:46 5,8 C 91 % 1023,8 hPa 0,0 l/m 0,0 km/h (0 Bft) S-SW 205 4,4 C 5,8 C
13.07.2020 06:45 5,8 C 91 % 1023,8 hPa 0,0 l/m 0,0 km/h (0 Bft) S-SW 205 4,4 C 5,8 C
13.07.2020 06:44 5,8 C 91 % 1023,8 hPa 0,0 l/m 0,0 km/h (0 Bft) S-SW 205 4,4 C 5,8 C
13.07.2020 06:43 5,8 C 91 % 1023,8 hPa 0,0 l/m 0,0 km/h (0 Bft) S-SW 205 4,4 C 5,8 C
13.07.2020 06:42 5,7 C 91 % 1023,9 hPa 0,0 l/m 0,0 km/h (0 Bft) S-SW 205 4,3 C 5,7 C
13.07.2020 06:41 5,7 C 91 % 1023,8 hPa 0,0 l/m 0,0 km/h (0 Bft) S-SW 205 4,3 C 5,7 C
13.07.2020 06:40 5,7 C 91 % 1023,8 hPa 0,0 l/m 0,0 km/h (0 Bft) S-SW 205 4,3 C 5,7 C
13.07.2020 06:39 5,6 C 91 % 1023,8 hPa 0,0 l/m 0,0 km/h (0 Bft) S-SW 205 4,2 C 5,6 C
13.07.2020 06:38 5,6 C 91 % 1023,8 hPa 0,0 l/m 0,0 km/h (0 Bft) S-SW 205 4,2 C 5,6 C
13.07.2020 06:37 5,5 C 91 % 1023,8 hPa 0,0 l/m 0,0 km/h (0 Bft) S-SW 205 4,2 C 5,5 C
13.07.2020 06:36 5,4 C 91 % 1023,8 hPa 0,0 l/m 0,0 km/h (0 Bft) S-SW 205 4,1 C 5,4 C
13.07.2020 06:35 5,3 C 91 % 1023,8 hPa 0,0 l/m 0,0 km/h (0 Bft) S-SW 205 4,0 C 5,3 C
13.07.2020 06:34 5,2 C 91 % 1023,7 hPa 0,0 l/m 0,0 km/h (0 Bft) S-SW 205 3,9 C 5,2 C
13.07.2020 06:33 5,2 C 91 % 1023,7 hPa 0,0 l/m 0,0 km/h (0 Bft) S-SW 205 3,9 C 5,2 C
13.07.2020 06:32 5,2 C 91 % 1023,7 hPa 0,0 l/m 0,0 km/h (0 Bft) S-SW 205 3,9 C 5,2 C
13.07.2020 06:30 5,1 C 91 % 1023,8 hPa 0,0 l/m 0,0 km/h (0 Bft) S-SW 205 3,8 C 5,1 C
13.07.2020 06:29 5,0 C 91 % 1023,7 hPa 0,0 l/m 0,0 km/h (0 Bft) S-SW 205 3,7 C 5,0 C
13.07.2020 06:28 4,9 C 91 % 1023,8 hPa 0,0 l/m 0,0 km/h (0 Bft) S-SW 205 3,6 C 4,9 C
13.07.2020 06:27 4,9 C 91 % 1023,8 hPa 0,0 l/m 0,0 km/h (0 Bft) S-SW 205 3,6 C 4,9 C
13.07.2020 06:26 4,9 C 91 % 1023,8 hPa 0,0 l/m 0,0 km/h (0 Bft) S-SW 205 3,6 C 4,9 C
13.07.2020 06:25 4,8 C 91 % 1023,7 hPa 0,0 l/m 0,0 km/h (0 Bft) S-SW 205 3,5 C 4,8 C
13.07.2020 06:24 4,8 C 91 % 1023,7 hPa 0,0 l/m 0,0 km/h (0 Bft) S-SW 205 3,5 C 4,8 C
13.07.2020 06:23 4,8 C 91 % 1023,8 hPa 0,0 l/m 0,0 km/h (0 Bft) S-SW 205 3,5 C 4,8 C
13.07.2020 06:22 4,8 C 91 % 1023,8 hPa 0,0 l/m 0,0 km/h (0 Bft) S-SW 205 3,5 C 4,8 C
13.07.2020 06:21 4,7 C 91 % 1023,7 hPa 0,0 l/m 0,0 km/h (0 Bft) S-SW 205 3,4 C 4,7 C
13.07.2020 06:20 4,7 C 91 % 1023,7 hPa 0,0 l/m 0,0 km/h (0 Bft) S-SW 205 3,4 C 4,7 C
13.07.2020 06:19 4,7 C 91 % 1023,7 hPa 0,0 l/m 0,0 km/h (0 Bft) S-SW 205 3,4 C 4,7 C
13.07.2020 06:18 4,6 C 91 % 1023,7 hPa 0,0 l/m 0,0 km/h (0 Bft) S-SW 205 3,3 C 4,6 C
13.07.2020 06:17 4,6 C 91 % 1023,7 hPa 0,0 l/m 0,0 km/h (0 Bft) S-SW 205 3,3 C 4,6 C
13.07.2020 06:16 4,6 C 91 % 1023,7 hPa 0,0 l/m 0,0 km/h (0 Bft) S-SW 205 3,3 C 4,6 C
13.07.2020 06:15 4,5 C 91 % 1023,7 hPa 0,0 l/m 0,0 km/h (0 Bft) S-SW 205 3,2 C 4,5 C
13.07.2020 06:14 4,4 C 91 % 1023,7 hPa 0,0 l/m 0,0 km/h (0 Bft) S-SW 205 3,1 C 4,4 C
13.07.2020 06:13 4,4 C 91 % 1023,7 hPa 0,0 l/m 0,0 km/h (0 Bft) S-SW 205 3,1 C 4,4 C
13.07.2020 06:12 4,3 C 91 % 1023,7 hPa 0,0 l/m 0,0 km/h (0 Bft) S-SW 205 3,0 C 4,3 C
13.07.2020 06:11 4,3 C 91 % 1023,7 hPa 0,0 l/m 0,0 km/h (0 Bft) S-SW 205 3,0 C 4,3 C
13.07.2020 06:10 4,3 C 91 % 1023,7 hPa 0,0 l/m 0,0 km/h (0 Bft) S-SW 205 3,0 C 4,3 C
13.07.2020 06:09 4,3 C 91 % 1023,7 hPa 0,0 l/m 0,0 km/h (0 Bft) S-SW 205 3,0 C 4,3 C
13.07.2020 06:08 4,2 C 91 % 1023,7 hPa 0,0 l/m 0,0 km/h (0 Bft) S-SW 205 2,9 C 4,2 C
13.07.2020 06:07 4,2 C 91 % 1023,7 hPa 0,0 l/m 0,0 km/h (0 Bft) S-SW 205 2,9 C 4,2 C
13.07.2020 06:06 4,2 C 91 % 1023,7 hPa 0,0 l/m 0,0 km/h (0 Bft) S-SW 205 2,9 C 4,2 C
13.07.2020 06:05 4,2 C 91 % 1023,8 hPa 0,0 l/m 0,0 km/h (0 Bft) S-SW 205 2,9 C 4,2 C
13.07.2020 06:04 4,2 C 91 % 1023,7 hPa 0,0 l/m 0,0 km/h (0 Bft) S-SW 205 2,9 C 4,2 C
13.07.2020 06:03 4,2 C 91 % 1023,8 hPa 0,0 l/m 0,0 km/h (0 Bft) S-SW 205 2,9 C 4,2 C
13.07.2020 06:02 4,2 C 91 % 1023,7 hPa 0,0 l/m 0,0 km/h (0 Bft) S-SW 205 2,9 C 4,2 C
13.07.2020 06:00 4,1 C 91 % 1023,7 hPa 0,0 l/m 0,0 km/h (0 Bft) S-SW 205 2,8 C 4,1 C
13.07.2020 05:59 4,1 C 91 % 1023,7 hPa 0,0 l/m 0,0 km/h (0 Bft) S-SW 205 2,8 C 4,1 C
13.07.2020 05:58 4,1 C 91 % 1023,8 hPa 0,0 l/m 0,0 km/h (0 Bft) S-SW 205 2,8 C 4,1 C
13.07.2020 05:57 4,0 C 91 % 1023,7 hPa 0,0 l/m 0,0 km/h (0 Bft) S-SW 205 2,7 C 4,0 C
13.07.2020 05:56 3,9 C 91 % 1023,7 hPa 0,0 l/m 0,0 km/h (0 Bft) S-SW 205 2,6 C 3,9 C
13.07.2020 05:55 3,9 C 91 % 1023,7 hPa 0,0 l/m 0,0 km/h (0 Bft) S-SW 205 2,6 C 3,9 C
13.07.2020 05:54 3,8 C 91 % 1023,8 hPa 0,0 l/m 0,0 km/h (0 Bft) S-SW 205 2,5 C 3,8 C
13.07.2020 05:53 3,8 C 91 % 1023,8 hPa 0,0 l/m 0,0 km/h (0 Bft) S-SW 205 2,5 C 3,8 C
13.07.2020 05:52 3,7 C 91 % 1023,8 hPa 0,0 l/m 0,0 km/h (0 Bft) S-SW 205 2,4 C 3,7 C
13.07.2020 05:51 3,7 C 91 % 1023,8 hPa 0,0 l/m 0,0 km/h (0 Bft) S-SW 205 2,4 C 3,7 C
13.07.2020 05:50 3,7 C 91 % 1023,7 hPa 0,0 l/m 0,0 km/h (0 Bft) S-SW 205 2,4 C 3,7 C
13.07.2020 05:49 3,7 C 91 % 1023,8 hPa 0,0 l/m 0,0 km/h (0 Bft) S-SW 205 2,4 C 3,7 C
13.07.2020 05:46 3,7 C 91 % 1023,8 hPa 0,0 l/m 0,0 km/h (0 Bft) S-SW 205 2,4 C 3,7 C
13.07.2020 05:45 3,7 C 91 % 1023,8 hPa 0,0 l/m 0,0 km/h (0 Bft) S-SW 205 2,4 C 3,7 C
13.07.2020 05:44 3,6 C 91 % 1023,8 hPa 0,0 l/m 0,0 km/h (0 Bft) S-SW 205 2,3 C 3,6 C
13.07.2020 05:43 3,6 C 91 % 1023,8 hPa 0,0 l/m 0,0 km/h (0 Bft) S-SW 205 2,3 C 3,6 C
13.07.2020 05:42 3,6 C 91 % 1023,8 hPa 0,0 l/m 0,0 km/h (0 Bft) S-SW 205 2,3 C 3,6 C
13.07.2020 05:41 3,6 C 91 % 1023,9 hPa 0,0 l/m 0,0 km/h (0 Bft) S-SW 205 2,3 C 3,6 C
13.07.2020 05:40 3,6 C 91 % 1023,8 hPa 0,0 l/m 0,0 km/h (0 Bft) S-SW 205 2,3 C 3,6 C
13.07.2020 05:39 3,5 C 91 % 1023,8 hPa 0,0 l/m 0,0 km/h (0 Bft) S-SW 205 2,2 C 3,5 C
13.07.2020 05:38 3,5 C 91 % 1023,9 hPa 0,0 l/m 0,0 km/h (0 Bft) S-SW 205 2,2 C 3,5 C
13.07.2020 05:37 3,5 C 91 % 1023,9 hPa 0,0 l/m 0,0 km/h (0 Bft) S-SW 205 2,2 C 3,5 C
13.07.2020 05:36 3,4 C 91 % 1023,9 hPa 0,0 l/m 0,0 km/h (0 Bft) S-SW 205 2,1 C 3,4 C
13.07.2020 05:35 3,4 C 91 % 1023,9 hPa 0,0 l/m 0,0 km/h (0 Bft) S-SW 205 2,1 C 3,4 C
13.07.2020 05:34 3,4 C 91 % 1023,9 hPa 0,0 l/m 0,0 km/h (0 Bft) S-SW 205 2,1 C 3,4 C
13.07.2020 05:33 3,4 C 91 % 1023,8 hPa 0,0 l/m 0,0 km/h (0 Bft) S-SW 205 2,1 C 3,4 C
13.07.2020 05:32 3,4 C 91 % 1023,8 hPa 0,0 l/m 0,0 km/h (0 Bft) S-SW 205 2,1 C 3,4 C
13.07.2020 05:31 3,4 C 91 % 1023,8 hPa 0,0 l/m 0,0 km/h (0 Bft) S-SW 205 2,1 C 3,4 C
13.07.2020 05:30 3,4 C 91 % 1023,9 hPa 0,0 l/m 0,0 km/h (0 Bft) S-SW 205 2,1 C 3,4 C
13.07.2020 05:29 3,4 C 91 % 1023,8 hPa 0,0 l/m 0,0 km/h (0 Bft) S-SW 205 2,1 C 3,4 C
13.07.2020 05:28 3,4 C 91 % 1023,8 hPa 0,0 l/m 0,0 km/h (0 Bft) S-SW 205 2,1 C 3,4 C
13.07.2020 05:27 3,4 C 91 % 1023,8 hPa 0,0 l/m 0,0 km/h (0 Bft) S-SW 205 2,1 C 3,4 C
13.07.2020 05:26 3,4 C 91 % 1023,8 hPa 0,0 l/m 0,0 km/h (0 Bft) S-SW 205 2,1 C 3,4 C
13.07.2020 05:25 3,4 C 91 % 1023,8 hPa 0,0 l/m 0,0 km/h (0 Bft) S-SW 205 2,1 C 3,4 C
13.07.2020 05:24 3,4 C 91 % 1023,8 hPa 0,0 l/m 0,0 km/h (0 Bft) S-SW 205 2,1 C 3,4 C
13.07.2020 05:23 3,4 C 91 % 1023,8 hPa 0,0 l/m 0,0 km/h (0 Bft) S-SW 205 2,1 C 3,4 C
13.07.2020 05:22 3,4 C 91 % 1023,9 hPa 0,0 l/m 0,0 km/h (0 Bft) S-SW 205 2,1 C 3,4 C
13.07.2020 05:21 3,4 C 91 % 1023,9 hPa 0,0 l/m 0,0 km/h (0 Bft) S-SW 205 2,1 C 3,4 C
13.07.2020 05:20 3,4 C 91 % 1023,9 hPa 0,0 l/m 0,0 km/h (0 Bft) S-SW 205 2,1 C 3,4 C
13.07.2020 05:19 3,4 C 91 % 1023,8 hPa 0,0 l/m 0,0 km/h (0 Bft) S-SW 205 2,1 C 3,4 C
13.07.2020 05:18 3,4 C 91 % 1023,8 hPa 0,0 l/m 0,0 km/h (0 Bft) S-SW 205 2,1 C 3,4 C
13.07.2020 05:17 3,4 C 91 % 1023,8 hPa 0,0 l/m 0,0 km/h (0 Bft) S-SW 205 2,1 C 3,4 C
13.07.2020 05:16 3,4 C 91 % 1023,8 hPa 0,0 l/m 0,0 km/h (0 Bft) S-SW 205 2,1 C 3,4 C
13.07.2020 05:15 3,4 C 91 % 1023,8 hPa 0,0 l/m 0,0 km/h (0 Bft) S-SW 205 2,1 C 3,4 C
13.07.2020 05:14 3,4 C 91 % 1023,9 hPa 0,0 l/m 0,0 km/h (0 Bft) S-SW 205 2,1 C 3,4 C
13.07.2020 05:13 3,4 C 91 % 1023,9 hPa 0,0 l/m 0,0 km/h (0 Bft) S-SW 205 2,1 C 3,4 C
13.07.2020 05:12 3,4 C 90 % 1023,9 hPa 0,0 l/m 0,0 km/h (0 Bft) S-SW 205 1,9 C 3,4 C
13.07.2020 05:11 3,4 C 90 % 1023,9 hPa 0,0 l/m 0,0 km/h (0 Bft) S-SW 205 1,9 C 3,4 C
13.07.2020 05:10 3,4 C 90 % 1023,9 hPa 0,0 l/m 0,0 km/h (0 Bft) S-SW 205 1,9 C 3,4 C
13.07.2020 05:09 3,4 C 90 % 1023,9 hPa 0,0 l/m 0,0 km/h (0 Bft) S-SW 205 1,9 C 3,4 C
13.07.2020 05:08 3,5 C 90 % 1023,9 hPa 0,0 l/m 0,0 km/h (0 Bft) S-SW 205 2,0 C 3,5 C
13.07.2020 05:07 3,5 C 90 % 1023,9 hPa 0,0 l/m 0,0 km/h (0 Bft) S-SW 205 2,0 C 3,5 C
13.07.2020 05:06 3,5 C 90 % 1023,9 hPa 0,0 l/m 0,0 km/h (0 Bft) S-SW 205 2,0 C 3,5 C
13.07.2020 05:05 3,5 C 90 % 1023,9 hPa 0,0 l/m 0,0 km/h (0 Bft) S-SW 205 2,0 C 3,5 C
13.07.2020 05:04 3,5 C 90 % 1023,9 hPa 0,0 l/m 0,0 km/h (0 Bft) S-SW 205 2,0 C 3,5 C
13.07.2020 05:03 3,6 C 90 % 1023,9 hPa 0,0 l/m 0,0 km/h (0 Bft) S-SW 205 2,1 C 3,6 C
13.07.2020 05:02 3,6 C 90 % 1023,9 hPa 0,0 l/m 0,0 km/h (0 Bft) S-SW 205 2,1 C 3,6 C
13.07.2020 05:01 3,6 C 90 % 1023,9 hPa 0,0 l/m 0,0 km/h (0 Bft) S-SW 205 2,1 C 3,6 C
13.07.2020 05:00 3,6 C 90 % 1023,9 hPa 0,0 l/m 0,0 km/h (0 Bft) S-SW 205 2,1 C 3,6 C
13.07.2020 04:59 3,6 C 90 % 1024,0 hPa 0,0 l/m 0,0 km/h (0 Bft) S-SW 205 2,1 C 3,6 C
13.07.2020 04:58 3,6 C 90 % 1023,9 hPa 0,0 l/m 0,0 km/h (0 Bft) S-SW 205 2,1 C 3,6 C
13.07.2020 04:57 3,6 C 90 % 1023,9 hPa 0,0 l/m 0,0 km/h (0 Bft) S-SW 205 2,1 C 3,6 C
13.07.2020 04:56 3,6 C 90 % 1023,9 hPa 0,0 l/m 0,0 km/h (0 Bft) S-SW 205 2,1 C 3,6 C
13.07.2020 04:55 3,6 C 90 % 1023,9 hPa 0,0 l/m 0,0 km/h (0 Bft) S-SW 205 2,1 C 3,6 C
13.07.2020 04:54 3,6 C 90 % 1023,9 hPa 0,0 l/m 0,0 km/h (0 Bft) S-SW 205 2,1 C 3,6 C
13.07.2020 04:53 3,6 C 90 % 1023,9 hPa 0,0 l/m 0,0 km/h (0 Bft) S-SW 205 2,1 C 3,6 C
13.07.2020 04:52 3,7 C 90 % 1023,9 hPa 0,0 l/m 0,0 km/h (0 Bft) S-SW 205 2,2 C 3,7 C
13.07.2020 04:51 3,6 C 90 % 1023,9 hPa 0,0 l/m 0,0 km/h (0 Bft) S-SW 205 2,1 C 3,6 C
13.07.2020 04:50 3,7 C 90 % 1023,9 hPa 0,0 l/m 0,0 km/h (0 Bft) S-SW 205 2,2 C 3,7 C
13.07.2020 04:49 3,7 C 90 % 1023,9 hPa 0,0 l/m 0,0 km/h (0 Bft) S-SW 205 2,2 C 3,7 C
13.07.2020 04:48 3,7 C 90 % 1023,9 hPa 0,0 l/m 0,0 km/h (0 Bft) S-SW 205 2,2 C 3,7 C
13.07.2020 04:47 3,7 C 90 % 1023,9 hPa 0,0 l/m 0,0 km/h (0 Bft) S-SW 205 2,2 C 3,7 C
13.07.2020 04:44 3,7 C 90 % 1023,9 hPa 0,0 l/m 0,0 km/h (0 Bft) S-SW 205 2,2 C 3,7 C
13.07.2020 04:43 3,7 C 90 % 1023,9 hPa 0,0 l/m 0,0 km/h (0 Bft) S-SW 205 2,2 C 3,7 C
13.07.2020 04:42 3,7 C 90 % 1023,9 hPa 0,0 l/m 0,0 km/h (0 Bft) S-SW 205 2,2 C 3,7 C
13.07.2020 04:41 3,8 C 90 % 1024,0 hPa 0,0 l/m 0,0 km/h (0 Bft) S-SW 205 2,3 C 3,8 C
13.07.2020 04:40 3,8 C 90 % 1024,0 hPa 0,0 l/m 0,0 km/h (0 Bft) S-SW 205 2,3 C 3,8 C
13.07.2020 04:39 3,8 C 90 % 1024,0 hPa 0,0 l/m 0,0 km/h (0 Bft) S-SW 205 2,3 C 3,8 C
13.07.2020 04:38 3,8 C 90 % 1024,0 hPa 0,0 l/m 0,0 km/h (0 Bft) S-SW 205 2,3 C 3,8 C
13.07.2020 04:37 3,8 C 90 % 1024,0 hPa 0,0 l/m 0,0 km/h (0 Bft) S-SW 205 2,3 C 3,8 C
13.07.2020 04:36 3,8 C 90 % 1023,9 hPa 0,0 l/m 0,0 km/h (0 Bft) S-SW 205 2,3 C 3,8 C
13.07.2020 04:35 3,8 C 90 % 1023,9 hPa 0,0 l/m 0,0 km/h (0 Bft) S-SW 205 2,3 C 3,8 C
13.07.2020 04:34 3,8 C 90 % 1024,0 hPa 0,0 l/m 0,0 km/h (0 Bft) S-SW 205 2,3 C 3,8 C
13.07.2020 04:33 3,8 C 90 % 1023,9 hPa 0,0 l/m 0,0 km/h (0 Bft) S-SW 205 2,3 C 3,8 C
13.07.2020 04:32 3,9 C 90 % 1024,0 hPa 0,0 l/m 0,0 km/h (0 Bft) S-SW 205 2,4 C 3,9 C
13.07.2020 04:31 3,9 C 90 % 1024,0 hPa 0,0 l/m 0,0 km/h (0 Bft) S-SW 205 2,4 C 3,9 C
13.07.2020 04:30 3,9 C 90 % 1024,0 hPa 0,0 l/m 0,0 km/h (0 Bft) S-SW 205 2,4 C 3,9 C
13.07.2020 04:29 3,9 C 90 % 1024,0 hPa 0,0 l/m 0,0 km/h (0 Bft) S-SW 205 2,4 C 3,9 C
13.07.2020 04:28 3,9 C 90 % 1024,0 hPa 0,0 l/m 0,0 km/h (0 Bft) S-SW 205 2,4 C 3,9 C
13.07.2020 04:27 3,9 C 90 % 1024,0 hPa 0,0 l/m 0,0 km/h (0 Bft) S-SW 205 2,4 C 3,9 C
13.07.2020 04:26 3,9 C 90 % 1024,0 hPa 0,0 l/m 0,0 km/h (0 Bft) S-SW 205 2,4 C 3,9 C
13.07.2020 04:25 3,9 C 90 % 1024,0 hPa 0,0 l/m 0,0 km/h (0 Bft) S-SW 205 2,4 C 3,9 C
13.07.2020 04:24 3,9 C 90 % 1024,0 hPa 0,0 l/m 0,0 km/h (0 Bft) S-SW 205 2,4 C 3,9 C
13.07.2020 04:23 3,9 C 90 % 1024,0 hPa 0,0 l/m 0,0 km/h (0 Bft) S-SW 205 2,4 C 3,9 C
13.07.2020 04:22 3,9 C 90 % 1024,0 hPa 0,0 l/m 0,0 km/h (0 Bft) S-SW 205 2,4 C 3,9 C
13.07.2020 04:21 3,9 C 90 % 1024,0 hPa 0,0 l/m 0,0 km/h (0 Bft) S-SW 205 2,4 C 3,9 C
13.07.2020 04:20 3,9 C 90 % 1024,0 hPa 0,0 l/m 0,0 km/h (0 Bft) S-SW 205 2,4 C 3,9 C
13.07.2020 04:19 3,9 C 90 % 1024,0 hPa 0,0 l/m 0,0 km/h (0 Bft) S-SW 205 2,4 C 3,9 C
13.07.2020 04:18 3,9 C 90 % 1024,0 hPa 0,0 l/m 0,0 km/h (0 Bft) S-SW 205 2,4 C 3,9 C
13.07.2020 04:17 3,9 C 90 % 1024,1 hPa 0,0 l/m 0,0 km/h (0 Bft) S-SW 205 2,4 C 3,9 C
13.07.2020 04:16 3,9 C 90 % 1024,0 hPa 0,0 l/m 0,0 km/h (0 Bft) S-SW 205 2,4 C 3,9 C
13.07.2020 04:15 3,9 C 90 % 1024,0 hPa 0,0 l/m 0,0 km/h (0 Bft) S-SW 205 2,4 C 3,9 C
13.07.2020 04:14 3,9 C 90 % 1024,1 hPa 0,0 l/m 0,0 km/h (0 Bft) S-SW 205 2,4 C 3,9 C
13.07.2020 04:13 3,9 C 90 % 1024,0 hPa 0,0 l/m 0,0 km/h (0 Bft) S-SW 205 2,4 C 3,9 C
13.07.2020 04:12 3,9 C 90 % 1024,1 hPa 0,0 l/m 0,0 km/h (0 Bft) S-SW 205 2,4 C 3,9 C
13.07.2020 04:11 3,9 C 90 % 1024,1 hPa 0,0 l/m 0,0 km/h (0 Bft) S-SW 205 2,4 C 3,9 C
13.07.2020 04:10 3,9 C 90 % 1024,0 hPa 0,0 l/m 0,0 km/h (0 Bft) S-SW 205 2,4 C 3,9 C
13.07.2020 04:09 3,9 C 90 % 1024,1 hPa 0,0 l/m 0,0 km/h (0 Bft) S-SW 205 2,4 C 3,9 C
13.07.2020 04:08 3,9 C 90 % 1024,1 hPa 0,0 l/m 0,0 km/h (0 Bft) S-SW 205 2,4 C 3,9 C
13.07.2020 04:07 3,9 C 90 % 1024,1 hPa 0,0 l/m 0,0 km/h (0 Bft) S-SW 205 2,4 C 3,9 C
13.07.2020 04:06 3,9 C 90 % 1024,1 hPa 0,0 l/m 0,0 km/h (0 Bft) S-SW 205 2,4 C 3,9 C
13.07.2020 04:05 4,0 C 90 % 1024,1 hPa 0,0 l/m 0,0 km/h (0 Bft) S-SW 205 2,5 C 4,0 C
13.07.2020 04:04 4,0 C 90 % 1024,1 hPa 0,0 l/m 0,0 km/h (0 Bft) S-SW 205 2,5 C 4,0 C
13.07.2020 04:03 4,0 C 90 % 1024,1 hPa 0,0 l/m 0,0 km/h (0 Bft) S-SW 205 2,5 C 4,0 C
13.07.2020 04:02 4,0 C 90 % 1024,1 hPa 0,0 l/m 0,0 km/h (0 Bft) S-SW 205 2,5 C 4,0 C
13.07.2020 04:01 4,1 C 90 % 1024,1 hPa 0,0 l/m 0,0 km/h (0 Bft) S-SW 205 2,6 C 4,1 C
13.07.2020 04:00 4,1 C 90 % 1024,1 hPa 0,0 l/m 0,0 km/h (0 Bft) S-SW 205 2,6 C 4,1 C
13.07.2020 03:59 4,1 C 90 % 1024,1 hPa 0,0 l/m 0,0 km/h (0 Bft) S-SW 205 2,6 C 4,1 C
13.07.2020 03:58 4,1 C 90 % 1024,1 hPa 0,0 l/m 0,0 km/h (0 Bft) S-SW 205 2,6 C 4,1 C
13.07.2020 03:57 4,1 C 90 % 1024,1 hPa 0,0 l/m 0,0 km/h (0 Bft) S-SW 205 2,6 C 4,1 C
13.07.2020 03:56 4,2 C 90 % 1024,1 hPa 0,0 l/m 0,0 km/h (0 Bft) S-SW 205 2,7 C 4,2 C
13.07.2020 03:55 4,2 C 90 % 1024,1 hPa 0,0 l/m 0,0 km/h (0 Bft) S-SW 205 2,7 C 4,2 C
13.07.2020 03:54 4,2 C 90 % 1024,1 hPa 0,0 l/m 0,0 km/h (0 Bft) S-SW 205 2,7 C 4,2 C
13.07.2020 03:53 4,2 C 90 % 1024,1 hPa 0,0 l/m 0,0 km/h (0 Bft) S-SW 205 2,7 C 4,2 C
13.07.2020 03:52 4,2 C 90 % 1024,1 hPa 0,0 l/m 0,0 km/h (0 Bft) S-SW 205 2,7 C 4,2 C
13.07.2020 03:51 4,2 C 90 % 1024,1 hPa 0,0 l/m 0,0 km/h (0 Bft) S-SW 205 2,7 C 4,2 C
13.07.2020 03:50 4,2 C 90 % 1024,1 hPa 0,0 l/m 0,0 km/h (0 Bft) S-SW 205 2,7 C 4,2 C
13.07.2020 03:49 4,2 C 90 % 1024,1 hPa 0,0 l/m 0,0 km/h (0 Bft) S-SW 205 2,7 C 4,2 C
13.07.2020 03:48 4,2 C 90 % 1024,1 hPa 0,0 l/m 0,0 km/h (0 Bft) S-SW 205 2,7 C 4,2 C
13.07.2020 03:47 4,2 C 90 % 1024,2 hPa 0,0 l/m 0,0 km/h (0 Bft) S-SW 205 2,7 C 4,2 C
13.07.2020 03:46 4,2 C 90 % 1024,2 hPa 0,0 l/m 0,0 km/h (0 Bft) S-SW 205 2,7 C 4,2 C
13.07.2020 03:45 4,2 C 90 % 1024,2 hPa 0,0 l/m 0,0 km/h (0 Bft) S-SW 205 2,7 C 4,2 C
13.07.2020 03:42 4,2 C 90 % 1024,2 hPa 0,0 l/m 0,0 km/h (0 Bft) S-SW 205 2,7 C 4,2 C
13.07.2020 03:41 4,2 C 90 % 1024,2 hPa 0,0 l/m 0,0 km/h (0 Bft) S-SW 205 2,7 C 4,2 C
13.07.2020 03:40 4,2 C 90 % 1024,2 hPa 0,0 l/m 0,0 km/h (0 Bft) S-SW 205 2,7 C 4,2 C
13.07.2020 03:39 4,2 C 90 % 1024,2 hPa 0,0 l/m 0,0 km/h (0 Bft) S-SW 205 2,7 C 4,2 C
13.07.2020 03:38 4,2 C 90 % 1024,2 hPa 0,0 l/m 0,0 km/h (0 Bft) S-SW 205 2,7 C 4,2 C
13.07.2020 03:37 4,2 C 90 % 1024,2 hPa 0,0 l/m 0,0 km/h (0 Bft) S-SW 205 2,7 C 4,2 C
13.07.2020 03:36 4,2 C 90 % 1024,2 hPa 0,0 l/m 0,0 km/h (0 Bft) S-SW 205 2,7 C 4,2 C
13.07.2020 03:35 4,2 C 90 % 1024,2 hPa 0,0 l/m 0,0 km/h (0 Bft) S-SW 205 2,7 C 4,2 C
13.07.2020 03:34 4,2 C 90 % 1024,2 hPa 0,0 l/m 0,0 km/h (0 Bft) S-SW 205 2,7 C 4,2 C
13.07.2020 03:33 4,2 C 90 % 1024,2 hPa 0,0 l/m 0,0 km/h (0 Bft) S-SW 205 2,7 C 4,2 C
13.07.2020 03:32 4,2 C 90 % 1024,3 hPa 0,0 l/m 0,0 km/h (0 Bft) S-SW 205 2,7 C 4,2 C
13.07.2020 03:31 4,2 C 90 % 1024,2 hPa 0,0 l/m 0,0 km/h (0 Bft) S-SW 205 2,7 C 4,2 C
13.07.2020 03:30 4,2 C 90 % 1024,2 hPa 0,0 l/m 0,0 km/h (0 Bft) S-SW 205 2,7 C 4,2 C
13.07.2020 03:29 4,2 C 90 % 1024,3 hPa 0,0 l/m 0,0 km/h (0 Bft) S-SW 205 2,7 C 4,2 C
13.07.2020 03:28 4,2 C 90 % 1024,2 hPa 0,0 l/m 0,0 km/h (0 Bft) S-SW 205 2,7 C 4,2 C
13.07.2020 03:27 4,2 C 90 % 1024,3 hPa 0,0 l/m 0,0 km/h (0 Bft) S-SW 205 2,7 C 4,2 C
13.07.2020 03:26 4,2 C 90 % 1024,3 hPa 0,0 l/m 0,0 km/h (0 Bft) S-SW 205 2,7 C 4,2 C
13.07.2020 03:25 4,2 C 90 % 1024,3 hPa 0,0 l/m 0,0 km/h (0 Bft) S-SW 205 2,7 C 4,2 C
13.07.2020 03:24 4,2 C 90 % 1024,3 hPa 0,0 l/m 0,0 km/h (0 Bft) S-SW 205 2,7 C 4,2 C
13.07.2020 03:23 4,2 C 90 % 1024,3 hPa 0,0 l/m 0,0 km/h (0 Bft) S-SW 205 2,7 C 4,2 C
13.07.2020 03:22 4,2 C 90 % 1024,3 hPa 0,0 l/m 0,0 km/h (0 Bft) S-SW 205 2,7 C 4,2 C
13.07.2020 03:21 4,2 C 90 % 1024,3 hPa 0,0 l/m 0,0 km/h (0 Bft) S-SW 205 2,7 C 4,2 C
13.07.2020 03:20 4,3 C 90 % 1024,3 hPa 0,0 l/m 0,0 km/h (0 Bft) S-SW 205 2,8 C 4,3 C
13.07.2020 03:19 4,3 C 90 % 1024,3 hPa 0,0 l/m 0,0 km/h (0 Bft) S-SW 205 2,8 C 4,3 C
13.07.2020 03:18 4,3 C 90 % 1024,3 hPa 0,0 l/m 0,0 km/h (0 Bft) S-SW 205 2,8 C 4,3 C
13.07.2020 03:17 4,3 C 90 % 1024,4 hPa 0,0 l/m 0,0 km/h (0 Bft) S-SW 205 2,8 C 4,3 C
13.07.2020 03:16 4,3 C 90 % 1024,4 hPa 0,0 l/m 0,0 km/h (0 Bft) S-SW 205 2,8 C 4,3 C
13.07.2020 03:15 4,3 C 90 % 1024,3 hPa 0,0 l/m 0,0 km/h (0 Bft) S-SW 205 2,8 C 4,3 C
13.07.2020 03:14 4,3 C 90 % 1024,4 hPa 0,0 l/m 0,0 km/h (0 Bft) S-SW 205 2,8 C 4,3 C
13.07.2020 03:13 4,3 C 90 % 1024,4 hPa 0,0 l/m 0,0 km/h (0 Bft) S-SW 205 2,8 C 4,3 C
13.07.2020 03:12 4,3 C 90 % 1024,3 hPa 0,0 l/m 0,0 km/h (0 Bft) S-SW 205 2,8 C 4,3 C
13.07.2020 03:10 4,3 C 90 % 1024,3 hPa 0,0 l/m 0,0 km/h (0 Bft) S-SW 205 2,8 C 4,3 C
13.07.2020 03:09 4,4 C 90 % 1024,3 hPa 0,0 l/m 0,0 km/h (0 Bft) S-SW 205 2,9 C 4,4 C
13.07.2020 03:08 4,4 C 90 % 1024,3 hPa 0,0 l/m 0,0 km/h (0 Bft) S-SW 205 2,9 C 4,4 C
13.07.2020 03:07 4,4 C 90 % 1024,4 hPa 0,0 l/m 0,0 km/h (0 Bft) S-SW 205 2,9 C 4,4 C
13.07.2020 03:06 4,4 C 90 % 1024,3 hPa 0,0 l/m 0,0 km/h (0 Bft) S-SW 205 2,9 C 4,4 C
13.07.2020 03:05 4,4 C 90 % 1024,4 hPa 0,0 l/m 0,0 km/h (0 Bft) S-SW 205 2,9 C 4,4 C
13.07.2020 03:04 4,4 C 90 % 1024,4 hPa 0,0 l/m 0,0 km/h (0 Bft) S-SW 205 2,9 C 4,4 C
13.07.2020 03:03 4,4 C 90 % 1024,4 hPa 0,0 l/m 0,0 km/h (0 Bft) S-SW 205 2,9 C 4,4 C
13.07.2020 03:02 4,4 C 90 % 1024,4 hPa 0,0 l/m 0,0 km/h (0 Bft) S-SW 205 2,9 C 4,4 C
13.07.2020 03:01 4,4 C 90 % 1024,4 hPa 0,0 l/m 0,0 km/h (0 Bft) S-SW 205 2,9 C 4,4 C
13.07.2020 03:00 4,4 C 90 % 1024,4 hPa 0,0 l/m 0,0 km/h (0 Bft) S-SW 205 2,9 C 4,4 C
13.07.2020 02:59 4,4 C 90 % 1024,4 hPa 0,0 l/m 0,0 km/h (0 Bft) S-SW 205 2,9 C 4,4 C
13.07.2020 02:58 4,4 C 90 % 1024,4 hPa 0,0 l/m 0,0 km/h (0 Bft) S-SW 205 2,9 C 4,4 C
13.07.2020 02:57 4,5 C 90 % 1024,4 hPa 0,0 l/m 0,0 km/h (0 Bft) S-SW 205 3,0 C 4,5 C
13.07.2020 02:56 4,5 C 90 % 1024,5 hPa 0,0 l/m 0,0 km/h (0 Bft) S-SW 205 3,0 C 4,5 C
13.07.2020 02:55 4,5 C 90 % 1024,4 hPa 0,0 l/m 0,0 km/h (0 Bft) S-SW 205 3,0 C 4,5 C
13.07.2020 02:54 4,5 C 90 % 1024,5 hPa 0,0 l/m 0,0 km/h (0 Bft) S-SW 205 3,0 C 4,5 C
13.07.2020 02:53 4,5 C 90 % 1024,5 hPa 0,0 l/m 0,0 km/h (0 Bft) S-SW 205 3,0 C 4,5 C
13.07.2020 02:52 4,5 C 90 % 1024,4 hPa 0,0 l/m 0,0 km/h (0 Bft) S-SW 205 3,0 C 4,5 C
13.07.2020 02:51 4,6 C 90 % 1024,5 hPa 0,0 l/m 0,0 km/h (0 Bft) S-SW 205 3,1 C 4,6 C
13.07.2020 02:50 4,5 C 90 % 1024,5 hPa 0,0 l/m 0,0 km/h (0 Bft) S-SW 205 3,0 C 4,5 C
13.07.2020 02:49 4,6 C 90 % 1024,4 hPa 0,0 l/m 0,0 km/h (0 Bft) S-SW 205 3,1 C 4,6 C
13.07.2020 02:48 4,6 C 90 % 1024,4 hPa 0,0 l/m 0,0 km/h (0 Bft) S-SW 205 3,1 C 4,6 C
13.07.2020 02:47 4,6 C 90 % 1024,4 hPa 0,0 l/m 0,0 km/h (0 Bft) S-SW 205 3,1 C 4,6 C
13.07.2020 02:46 4,6 C 90 % 1024,5 hPa 0,0 l/m 0,0 km/h (0 Bft) S-SW 205 3,1 C 4,6 C
13.07.2020 02:45 4,6 C 90 % 1024,5 hPa 0,0 l/m 0,0 km/h (0 Bft) S-SW 205 3,1 C 4,6 C
13.07.2020 02:44 4,6 C 90 % 1024,5 hPa 0,0 l/m 0,0 km/h (0 Bft) S-SW 205 3,1 C 4,6 C
13.07.2020 02:43 4,6 C 90 % 1024,5 hPa 0,0 l/m 0,0 km/h (0 Bft) S-SW 205 3,1 C 4,6 C
13.07.2020 02:42 4,6 C 90 % 1024,5 hPa 0,0 l/m 0,0 km/h (0 Bft) S-SW 205 3,1 C 4,6 C
13.07.2020 02:38 4,7 C 90 % 1024,5 hPa 0,0 l/m 0,0 km/h (0 Bft) S-SW 205 3,2 C 4,7 C
13.07.2020 02:37 4,7 C 90 % 1024,5 hPa 0,0 l/m 0,0 km/h (0 Bft) S-SW 205 3,2 C 4,7 C
13.07.2020 02:36 4,7 C 90 % 1024,5 hPa 0,0 l/m 0,0 km/h (0 Bft) S-SW 205 3,2 C 4,7 C
13.07.2020 02:35 4,7 C 90 % 1024,5 hPa 0,0 l/m 0,0 km/h (0 Bft) S-SW 205 3,2 C 4,7 C
13.07.2020 02:34 4,7 C 90 % 1024,5 hPa 0,0 l/m 0,0 km/h (0 Bft) S-SW 205 3,2 C 4,7 C
13.07.2020 02:33 4,7 C 90 % 1024,5 hPa 0,0 l/m 0,0 km/h (0 Bft) S-SW 205 3,2 C 4,7 C
13.07.2020 02:32 4,7 C 90 % 1024,5 hPa 0,0 l/m 0,0 km/h (0 Bft) S-SW 205 3,2 C 4,7 C
13.07.2020 02:31 4,7 C 90 % 1024,5 hPa 0,0 l/m 0,0 km/h (0 Bft) S-SW 205 3,2 C 4,7 C
13.07.2020 02:30 4,7 C 90 % 1024,5 hPa 0,0 l/m 0,0 km/h (0 Bft) S-SW 205 3,2 C 4,7 C
13.07.2020 02:29 4,7 C 90 % 1024,5 hPa 0,0 l/m 0,0 km/h (0 Bft) S-SW 205 3,2 C 4,7 C
13.07.2020 02:28 4,8 C 90 % 1024,6 hPa 0,0 l/m 0,0 km/h (0 Bft) S-SW 205 3,3 C 4,8 C
13.07.2020 02:27 4,8 C 90 % 1024,5 hPa 0,0 l/m 0,0 km/h (0 Bft) S-SW 205 3,3 C 4,8 C
13.07.2020 02:26 4,8 C 90 % 1024,5 hPa 0,0 l/m 0,0 km/h (0 Bft) S-SW 205 3,3 C 4,8 C
13.07.2020 02:25 4,8 C 90 % 1024,5 hPa 0,0 l/m 0,0 km/h (0 Bft) S-SW 205 3,3 C 4,8 C
13.07.2020 02:24 4,8 C 90 % 1024,5 hPa 0,0 l/m 0,0 km/h (0 Bft) S-SW 205 3,3 C 4,8 C
13.07.2020 02:23 4,8 C 90 % 1024,5 hPa 0,0 l/m 0,0 km/h (0 Bft) S-SW 205 3,3 C 4,8 C
13.07.2020 02:22 4,8 C 90 % 1024,5 hPa 0,0 l/m 0,0 km/h (0 Bft) S-SW 205 3,3 C 4,8 C
13.07.2020 02:21 4,8 C 90 % 1024,5 hPa 0,0 l/m 0,0 km/h (0 Bft) S-SW 205 3,3 C 4,8 C
13.07.2020 02:20 4,8 C 90 % 1024,5 hPa 0,0 l/m 0,0 km/h (0 Bft) S-SW 205 3,3 C 4,8 C
13.07.2020 02:19 4,8 C 90 % 1024,6 hPa 0,0 l/m 0,0 km/h (0 Bft) S-SW 205 3,3 C 4,8 C
13.07.2020 02:18 4,9 C 90 % 1024,5 hPa 0,0 l/m 0,0 km/h (0 Bft) S-SW 205 3,4 C 4,9 C
13.07.2020 02:17 4,9 C 90 % 1024,5 hPa 0,0 l/m 0,0 km/h (0 Bft) S-SW 205 3,4 C 4,9 C
13.07.2020 02:16 4,9 C 90 % 1024,5 hPa 0,0 l/m 0,0 km/h (0 Bft) S-SW 205 3,4 C 4,9 C
13.07.2020 02:15 4,9 C 90 % 1024,5 hPa 0,0 l/m 0,0 km/h (0 Bft) S-SW 205 3,4 C 4,9 C
13.07.2020 02:14 4,9 C 90 % 1024,5 hPa 0,0 l/m 0,0 km/h (0 Bft) S-SW 205 3,4 C 4,9 C
13.07.2020 02:13 4,9 C 90 % 1024,5 hPa 0,0 l/m 0,0 km/h (0 Bft) S-SW 205 3,4 C 4,9 C
13.07.2020 02:12 4,9 C 90 % 1024,5 hPa 0,0 l/m 0,0 km/h (0 Bft) S-SW 205 3,4 C 4,9 C
13.07.2020 02:11 4,9 C 90 % 1024,5 hPa 0,0 l/m 0,0 km/h (0 Bft) S-SW 205 3,4 C 4,9 C
13.07.2020 02:10 4,9 C 90 % 1024,6 hPa 0,0 l/m 0,0 km/h (0 Bft) S-SW 205 3,4 C 4,9 C
13.07.2020 02:09 4,9 C 90 % 1024,5 hPa 0,0 l/m 0,0 km/h (0 Bft) S-SW 205 3,4 C 4,9 C
13.07.2020 02:08 4,9 C 90 % 1024,5 hPa 0,0 l/m 0,0 km/h (0 Bft) S-SW 205 3,4 C 4,9 C
13.07.2020 02:07 4,9 C 90 % 1024,5 hPa 0,0 l/m 0,0 km/h (0 Bft) S-SW 205 3,4 C 4,9 C
13.07.2020 02:06 5,0 C 90 % 1024,5 hPa 0,0 l/m 0,0 km/h (0 Bft) S-SW 205 3,5 C 5,0 C
13.07.2020 02:05 5,0 C 90 % 1024,5 hPa 0,0 l/m 0,0 km/h (0 Bft) S-SW 205 3,5 C 5,0 C
13.07.2020 02:04 5,0 C 90 % 1024,5 hPa 0,0 l/m 0,0 km/h (0 Bft) S-SW 205 3,5 C 5,0 C
13.07.2020 02:03 5,0 C 90 % 1024,5 hPa 0,0 l/m 0,0 km/h (0 Bft) S-SW 205 3,5 C 5,0 C
13.07.2020 02:02 5,0 C 90 % 1024,5 hPa 0,0 l/m 0,0 km/h (0 Bft) S-SW 205 3,5 C 5,0 C
13.07.2020 02:01 5,0 C 90 % 1024,5 hPa 0,0 l/m 0,0 km/h (0 Bft) S-SW 205 3,5 C 5,0 C
13.07.2020 02:00 5,1 C 90 % 1024,5 hPa 0,0 l/m 0,0 km/h (0 Bft) S-SW 205 3,6 C 5,1 C
13.07.2020 01:59 5,1 C 89 % 1024,5 hPa 0,0 l/m 0,0 km/h (0 Bft) S-SW 205 3,4 C 5,1 C
13.07.2020 01:58 5,1 C 89 % 1024,5 hPa 0,0 l/m 0,0 km/h (0 Bft) S-SW 205 3,4 C 5,1 C
13.07.2020 01:57 5,1 C 89 % 1024,5 hPa 0,0 l/m 0,0 km/h (0 Bft) S-SW 205 3,4 C 5,1 C
13.07.2020 01:56 5,1 C 89 % 1024,5 hPa 0,0 l/m 0,0 km/h (0 Bft) S-SW 205 3,4 C 5,1 C
13.07.2020 01:55 5,1 C 89 % 1024,5 hPa 0,0 l/m 0,0 km/h (0 Bft) S-SW 205 3,4 C 5,1 C
13.07.2020 01:54 5,1 C 89 % 1024,5 hPa 0,0 l/m 0,0 km/h (0 Bft) S-SW 205 3,4 C 5,1 C
13.07.2020 01:53 5,2 C 89 % 1024,5 hPa 0,0 l/m 0,0 km/h (0 Bft) S-SW 205 3,5 C 5,2 C
13.07.2020 01:52 5,2 C 89 % 1024,5 hPa 0,0 l/m 0,0 km/h (0 Bft) S-SW 205 3,5 C 5,2 C
13.07.2020 01:51 5,2 C 89 % 1024,5 hPa 0,0 l/m 0,0 km/h (0 Bft) S-SW 205 3,5 C 5,2 C
13.07.2020 01:50 5,2 C 89 % 1024,5 hPa 0,0 l/m 0,0 km/h (0 Bft) S-SW 205 3,5 C 5,2 C
13.07.2020 01:49 5,2 C 89 % 1024,5 hPa 0,0 l/m 0,0 km/h (0 Bft) S-SW 205 3,5 C 5,2 C
13.07.2020 01:48 5,2 C 90 % 1024,5 hPa 0,0 l/m 0,0 km/h (0 Bft) S-SW 205 3,7 C 5,2 C
13.07.2020 01:47 5,2 C 90 % 1024,5 hPa 0,0 l/m 0,0 km/h (0 Bft) S-SW 205 3,7 C 5,2 C
13.07.2020 01:46 5,2 C 90 % 1024,5 hPa 0,0 l/m 0,0 km/h (0 Bft) S-SW 205 3,7 C 5,2 C
13.07.2020 01:45 5,2 C 90 % 1024,5 hPa 0,0 l/m 0,0 km/h (0 Bft) S-SW 205 3,7 C 5,2 C
13.07.2020 01:44 5,3 C 90 % 1024,5 hPa 0,0 l/m 0,0 km/h (0 Bft) S-SW 205 3,8 C 5,3 C
13.07.2020 01:43 5,3 C 90 % 1024,5 hPa 0,0 l/m 0,0 km/h (0 Bft) S-SW 205 3,8 C 5,3 C
13.07.2020 01:42 5,3 C 90 % 1024,5 hPa 0,0 l/m 0,0 km/h (0 Bft) S-SW 205 3,8 C 5,3 C
13.07.2020 01:41 5,3 C 90 % 1024,5 hPa 0,0 l/m 0,0 km/h (0 Bft) S-SW 205 3,8 C 5,3 C
13.07.2020 01:40 5,3 C 90 % 1024,5 hPa 0,0 l/m 0,0 km/h (0 Bft) S-SW 205 3,8 C 5,3 C
13.07.2020 01:39 5,3 C 90 % 1024,5 hPa 0,0 l/m 0,0 km/h (0 Bft) S-SW 205 3,8 C 5,3 C
13.07.2020 01:36 5,3 C 89 % 1024,5 hPa 0,0 l/m 0,0 km/h (0 Bft) S-SW 205 3,6 C 5,3 C
13.07.2020 01:35 5,3 C 89 % 1024,5 hPa 0,0 l/m 0,0 km/h (0 Bft) S-SW 205 3,6 C 5,3 C
13.07.2020 01:34 5,3 C 89 % 1024,5 hPa 0,0 l/m 0,0 km/h (0 Bft) S-SW 205 3,6 C 5,3 C
13.07.2020 01:33 5,3 C 89 % 1024,5 hPa 0,0 l/m 0,0 km/h (0 Bft) S-SW 205 3,6 C 5,3 C
13.07.2020 01:32 5,3 C 89 % 1024,5 hPa 0,0 l/m 0,0 km/h (0 Bft) S-SW 205 3,6 C 5,3 C
13.07.2020 01:31 5,3 C 89 % 1024,5 hPa 0,0 l/m 0,0 km/h (0 Bft) S-SW 205 3,6 C 5,3 C
13.07.2020 01:30 5,3 C 89 % 1024,5 hPa 0,0 l/m 0,0 km/h (0 Bft) S-SW 205 3,6 C 5,3 C
13.07.2020 01:29 5,3 C 89 % 1024,5 hPa 0,0 l/m 0,0 km/h (0 Bft) S-SW 205 3,6 C 5,3 C
13.07.2020 01:28 5,4 C 89 % 1024,5 hPa 0,0 l/m 0,0 km/h (0 Bft) S-SW 205 3,7 C 5,4 C
13.07.2020 01:27 5,4 C 89 % 1024,5 hPa 0,0 l/m 0,0 km/h (0 Bft) S-SW 205 3,7 C 5,4 C
13.07.2020 01:26 5,4 C 89 % 1024,5 hPa 0,0 l/m 0,0 km/h (0 Bft) S-SW 205 3,7 C 5,4 C
13.07.2020 01:25 5,4 C 89 % 1024,5 hPa 0,0 l/m 0,0 km/h (0 Bft) S-SW 205 3,7 C 5,4 C
13.07.2020 01:24 5,4 C 89 % 1024,5 hPa 0,0 l/m 0,0 km/h (0 Bft) S-SW 205 3,7 C 5,4 C
13.07.2020 01:23 5,4 C 89 % 1024,5 hPa 0,0 l/m 0,0 km/h (0 Bft) S-SW 205 3,7 C 5,4 C
13.07.2020 01:22 5,4 C 89 % 1024,5 hPa 0,0 l/m 0,0 km/h (0 Bft) S-SW 205 3,7 C 5,4 C
13.07.2020 01:21 5,4 C 89 % 1024,5 hPa 0,0 l/m 0,0 km/h (0 Bft) S-SW 205 3,7 C 5,4 C
13.07.2020 01:20 5,4 C 89 % 1024,5 hPa 0,0 l/m 0,0 km/h (0 Bft) S-SW 205 3,7 C 5,4 C
13.07.2020 01:19 5,4 C 89 % 1024,5 hPa 0,0 l/m 0,0 km/h (0 Bft) S-SW 205 3,7 C 5,4 C
13.07.2020 01:18 5,5 C 89 % 1024,5 hPa 0,0 l/m 0,0 km/h (0 Bft) S-SW 205 3,8 C 5,5 C
13.07.2020 01:17 5,5 C 89 % 1024,5 hPa 0,0 l/m 0,0 km/h (0 Bft) S-SW 205 3,8 C 5,5 C
13.07.2020 01:16 5,5 C 89 % 1024,6 hPa 0,0 l/m 0,0 km/h (0 Bft) S-SW 205 3,8 C 5,5 C
13.07.2020 01:15 5,5 C 89 % 1024,5 hPa 0,0 l/m 0,0 km/h (0 Bft) S-SW 205 3,8 C 5,5 C
13.07.2020 01:14 5,5 C 89 % 1024,5 hPa 0,0 l/m 0,0 km/h (0 Bft) S-SW 205 3,8 C 5,5 C
13.07.2020 01:13 5,5 C 89 % 1024,6 hPa 0,0 l/m 0,0 km/h (0 Bft) S-SW 205 3,8 C 5,5 C
13.07.2020 01:12 5,5 C 89 % 1024,6 hPa 0,0 l/m 0,0 km/h (0 Bft) S-SW 205 3,8 C 5,5 C
13.07.2020 01:11 5,6 C 89 % 1024,6 hPa 0,0 l/m 0,0 km/h (0 Bft) S-SW 205 3,9 C 5,6 C
13.07.2020 01:10 5,6 C 89 % 1024,6 hPa 0,0 l/m 0,0 km/h (0 Bft) S-SW 205 3,9 C 5,6 C
13.07.2020 01:09 5,6 C 89 % 1024,6 hPa 0,0 l/m 0,0 km/h (0 Bft) S-SW 205 3,9 C 5,6 C
13.07.2020 01:08 5,6 C 89 % 1024,6 hPa 0,0 l/m 0,0 km/h (0 Bft) S-SW 205 3,9 C 5,6 C
13.07.2020 01:07 5,6 C 89 % 1024,6 hPa 0,0 l/m 0,0 km/h (0 Bft) S-SW 205 3,9 C 5,6 C
13.07.2020 01:06 5,6 C 89 % 1024,6 hPa 0,0 l/m 0,0 km/h (0 Bft) S-SW 205 3,9 C 5,6 C
13.07.2020 01:05 5,6 C 89 % 1024,6 hPa 0,0 l/m 0,0 km/h (0 Bft) S-SW 205 3,9 C 5,6 C
13.07.2020 01:04 5,6 C 89 % 1024,6 hPa 0,0 l/m 0,0 km/h (0 Bft) S-SW 205 3,9 C 5,6 C
13.07.2020 01:03 5,7 C 89 % 1024,6 hPa 0,0 l/m 0,0 km/h (0 Bft) S-SW 205 4,0 C 5,7 C
13.07.2020 01:02 5,7 C 89 % 1024,6 hPa 0,0 l/m 0,0 km/h (0 Bft) S-SW 205 4,0 C 5,7 C
13.07.2020 01:01 5,7 C 89 % 1024,7 hPa 0,0 l/m 0,0 km/h (0 Bft) S-SW 205 4,0 C 5,7 C
13.07.2020 01:00 5,7 C 89 % 1024,6 hPa 0,0 l/m 0,0 km/h (0 Bft) S-SW 205 4,0 C 5,7 C
13.07.2020 00:59 5,7 C 89 % 1024,6 hPa 0,0 l/m 0,0 km/h (0 Bft) S-SW 205 4,0 C 5,7 C
13.07.2020 00:58 5,7 C 89 % 1024,6 hPa 0,0 l/m 0,0 km/h (0 Bft) S-SW 205 4,0 C 5,7 C
13.07.2020 00:57 5,7 C 89 % 1024,7 hPa 0,0 l/m 0,0 km/h (0 Bft) S-SW 205 4,0 C 5,7 C
13.07.2020 00:56 5,7 C 89 % 1024,6 hPa 0,0 l/m 0,0 km/h (0 Bft) S-SW 205 4,0 C 5,7 C
13.07.2020 00:55 5,8 C 89 % 1024,6 hPa 0,0 l/m 0,0 km/h (0 Bft) S-SW 205 4,1 C 5,8 C
13.07.2020 00:54 5,8 C 89 % 1024,7 hPa 0,0 l/m 0,0 km/h (0 Bft) S-SW 205 4,1 C 5,8 C
13.07.2020 00:53 5,8 C 89 % 1024,7 hPa 0,0 l/m 0,0 km/h (0 Bft) S-SW 205 4,1 C 5,8 C
13.07.2020 00:52 5,8 C 89 % 1024,7 hPa 0,0 l/m 0,0 km/h (0 Bft) S-SW 205 4,1 C 5,8 C
13.07.2020 00:51 5,8 C 89 % 1024,7 hPa 0,0 l/m 0,0 km/h (0 Bft) S-SW 205 4,1 C 5,8 C
13.07.2020 00:50 5,8 C 89 % 1024,7 hPa 0,0 l/m 0,0 km/h (0 Bft) S-SW 205 4,1 C 5,8 C
13.07.2020 00:49 5,8 C 89 % 1024,7 hPa 0,0 l/m 0,0 km/h (0 Bft) S-SW 205 4,1 C 5,8 C
13.07.2020 00:48 5,9 C 89 % 1024,7 hPa 0,0 l/m 0,0 km/h (0 Bft) S-SW 205 4,2 C 5,9 C
13.07.2020 00:47 5,9 C 89 % 1024,7 hPa 0,0 l/m 0,0 km/h (0 Bft) S-SW 205 4,2 C 5,9 C
13.07.2020 00:46 5,9 C 89 % 1024,7 hPa 0,0 l/m 0,0 km/h (0 Bft) S-SW 205 4,2 C 5,9 C
13.07.2020 00:45 5,9 C 89 % 1024,7 hPa 0,0 l/m 0,0 km/h (0 Bft) S-SW 205 4,2 C 5,9 C
13.07.2020 00:44 5,9 C 89 % 1024,7 hPa 0,0 l/m 0,0 km/h (0 Bft) S-SW 205 4,2 C 5,9 C
13.07.2020 00:43 5,9 C 89 % 1024,7 hPa 0,0 l/m 0,0 km/h (0 Bft) S-SW 205 4,2 C 5,9 C
13.07.2020 00:42 5,9 C 89 % 1024,6 hPa 0,0 l/m 0,0 km/h (0 Bft) S-SW 205 4,2 C 5,9 C
13.07.2020 00:41 6,0 C 89 % 1024,7 hPa 0,0 l/m 0,0 km/h (0 Bft) S-SW 205 4,3 C 6,0 C
13.07.2020 00:40 6,0 C 89 % 1024,7 hPa 0,0 l/m 0,0 km/h (0 Bft) S-SW 205 4,3 C 6,0 C
13.07.2020 00:39 6,0 C 89 % 1024,8 hPa 0,0 l/m 0,0 km/h (0 Bft) S-SW 205 4,3 C 6,0 C
13.07.2020 00:38 6,0 C 89 % 1024,7 hPa 0,0 l/m 0,0 km/h (0 Bft) S-SW 205 4,3 C 6,0 C
13.07.2020 00:37 6,1 C 89 % 1024,7 hPa 0,0 l/m 0,0 km/h (0 Bft) S-SW 205 4,4 C 6,1 C
13.07.2020 00:34 6,1 C 89 % 1024,7 hPa 0,0 l/m 0,0 km/h (0 Bft) S-SW 205 4,4 C 6,1 C
13.07.2020 00:33 6,1 C 89 % 1024,7 hPa 0,0 l/m 0,0 km/h (0 Bft) S-SW 205 4,4 C 6,1 C
13.07.2020 00:32 6,1 C 89 % 1024,8 hPa 0,0 l/m 0,0 km/h (0 Bft) S-SW 205 4,4 C 6,1 C
13.07.2020 00:31 6,1 C 89 % 1024,7 hPa 0,0 l/m 0,0 km/h (0 Bft) S-SW 205 4,4 C 6,1 C
13.07.2020 00:30 6,1 C 89 % 1024,7 hPa 0,0 l/m 0,0 km/h (0 Bft) S-SW 205 4,4 C 6,1 C
13.07.2020 00:29 6,1 C 89 % 1024,7 hPa 0,0 l/m 0,0 km/h (0 Bft) S-SW 205 4,4 C 6,1 C
13.07.2020 00:28 6,1 C 89 % 1024,7 hPa 0,0 l/m 0,0 km/h (0 Bft) S-SW 205 4,4 C 6,1 C
13.07.2020 00:27 6,1 C 89 % 1024,7 hPa 0,0 l/m 0,0 km/h (0 Bft) S-SW 205 4,4 C 6,1 C
13.07.2020 00:26 6,2 C 89 % 1024,7 hPa 0,0 l/m 0,0 km/h (0 Bft) S-SW 205 4,5 C 6,2 C
13.07.2020 00:25 6,2 C 89 % 1024,7 hPa 0,0 l/m 0,0 km/h (0 Bft) S-SW 205 4,5 C 6,2 C
13.07.2020 00:24 6,2 C 89 % 1024,7 hPa 0,0 l/m 0,0 km/h (0 Bft) S-SW 205 4,5 C 6,2 C
13.07.2020 00:23 6,2 C 89 % 1024,7 hPa 0,0 l/m 0,0 km/h (0 Bft) S-SW 205 4,5 C 6,2 C
13.07.2020 00:22 6,2 C 89 % 1024,7 hPa 0,0 l/m 0,0 km/h (0 Bft) S-SW 205 4,5 C 6,2 C
13.07.2020 00:21 6,2 C 89 % 1024,7 hPa 0,0 l/m 0,0 km/h (0 Bft) S-SW 205 4,5 C 6,2 C
13.07.2020 00:20 6,3 C 89 % 1024,7 hPa 0,0 l/m 0,0 km/h (0 Bft) S-SW 205 4,6 C 6,3 C
13.07.2020 00:19 6,3 C 89 % 1024,7 hPa 0,0 l/m 0,0 km/h (0 Bft) S-SW 205 4,6 C 6,3 C
13.07.2020 00:18 6,3 C 89 % 1024,7 hPa 0,0 l/m 0,0 km/h (0 Bft) S-SW 205 4,6 C 6,3 C
13.07.2020 00:17 6,3 C 89 % 1024,7 hPa 0,0 l/m 0,0 km/h (0 Bft) S-SW 205 4,6 C 6,3 C
13.07.2020 00:16 6,3 C 89 % 1024,7 hPa 0,0 l/m 0,0 km/h (0 Bft) S-SW 205 4,6 C 6,3 C
13.07.2020 00:15 6,3 C 89 % 1024,7 hPa 0,0 l/m 0,0 km/h (0 Bft) S-SW 205 4,6 C 6,3 C
13.07.2020 00:14 6,3 C 89 % 1024,7 hPa 0,0 l/m 0,0 km/h (0 Bft) S-SW 205 4,6 C 6,3 C
13.07.2020 00:13 6,4 C 89 % 1024,7 hPa 0,0 l/m 0,0 km/h (0 Bft) S-SW 205 4,7 C 6,4 C
13.07.2020 00:12 6,4 C 89 % 1024,7 hPa 0,0 l/m 0,0 km/h (0 Bft) S-SW 205 4,7 C 6,4 C
13.07.2020 00:11 6,4 C 88 % 1024,7 hPa 0,0 l/m 0,0 km/h (0 Bft) S-SW 205 4,6 C 6,4 C
13.07.2020 00:10 6,4 C 89 % 1024,7 hPa 0,0 l/m 0,0 km/h (0 Bft) S-SW 205 4,7 C 6,4 C
13.07.2020 00:09 6,4 C 89 % 1024,7 hPa 0,0 l/m 0,0 km/h (0 Bft) S-SW 205 4,7 C 6,4 C
13.07.2020 00:08 6,4 C 89 % 1024,7 hPa 0,0 l/m 0,0 km/h (0 Bft) S-SW 205 4,7 C 6,4 C
13.07.2020 00:07 6,4 C 89 % 1024,8 hPa 0,0 l/m 0,0 km/h (0 Bft) S-SW 205 4,7 C 6,4 C
13.07.2020 00:06 6,4 C 89 % 1024,7 hPa 0,0 l/m 0,0 km/h (0 Bft) S-SW 205 4,7 C 6,4 C
13.07.2020 00:05 6,5 C 89 % 1024,8 hPa 0,0 l/m 0,0 km/h (0 Bft) S-SW 205 4,8 C 6,5 C
13.07.2020 00:04 6,5 C 88 % 1024,8 hPa 0,0 l/m 0,0 km/h (0 Bft) S-SW 205 4,7 C 6,5 C
13.07.2020 00:03 6,5 C 88 % 1024,7 hPa 0,0 l/m 0,0 km/h (0 Bft) S-SW 205 4,7 C 6,5 C
13.07.2020 00:02 6,6 C 88 % 1024,7 hPa 0,0 l/m 0,0 km/h (0 Bft) S-SW 205 4,8 C 6,6 C
13.07.2020 00:01 6,6 C 88 % 1024,7 hPa 0,0 l/m 0,0 km/h (0 Bft) S-SW 205 4,8 C 6,6 C
13.07.2020 00:00 6,6 C 88 % 1024,7 hPa 0,0 l/m 0,0 km/h (0 Bft) S-SW 205 4,8 C 6,6 C
_ Min-Zeit 05:09 10:31 09:59 - 00:00 - - 05:09 05:09
Minimum _ 3,4 C 50 % 1023,1 hPa - 0,0 km/h (0 Bft) - - 1,9 C 3,4 C
_ Max-Zeit 10:26 07:07 00:04 00:00 09:26 - - 08:41 10:26
Maximum _ 17,7 C 92 % 1024,8 hPa 0,0 l/m 1,7 km/h
N (1 Bft)
- - 11,7 C 17,7 C
Durchschnitt _ 7,7 C 85 % 1024,0 hPa #0,0 l/m 0,0 km/h (0 Bft) NO - 5,2 C 7,7 C